W2GRK-15 Weather Reports


Display with metric or nautical units.
time (UTC)temp
F
wind
direction
speed
MPH
gust
MPH
rain 1hr
in
rain 24hr
in
rain mn
in
humidity
%
barometer
mb
20260831213018 80 107 1.0 1.0 0.00 0.01 0.00 64 1020.6
20260831212930 80 107 1.0 1.0 0.00 0.01 0.00 64 1020.5
20260831212825 80 107 1.0 2.0 0.00 0.01 0.00 64 1020.5
20260831212721 80 107 1.0 1.0 0.00 0.01 0.00 64 1020.6
20260831212637 80 107 1.0 1.0 0.00 0.01 0.00 64 1020.6
20260831212528 80 107 1.0 2.0 0.00 0.01 0.00 63 1020.6
20260831212424 80 101 1.0 2.0 0.00 0.01 0.00 64 1020.5
20260831212339 80 85 1.0 1.0 0.00 0.01 0.00 64 1020.5
20260831212231 80 85 0.0 1.0 0.00 0.01 0.00 64 1020.5
20260831212126 80 85 0.0 1.0 0.00 0.01 0.00 64 1020.6
20260831212022 80 79 1.0 2.0 0.00 0.01 0.00 64 1020.5
20260831211918 80 71 2.0 3.0 0.00 0.01 0.00 64 1020.2
20260831211829 80 83 2.0 3.0 0.00 0.01 0.00 64 1020.6
20260831211725 80 99 1.0 2.0 0.00 0.01 0.00 64 1020.5
20260831211621 80 99 2.0 3.0 0.00 0.01 0.00 63 1020.3
20260831211516 80 122 1.0 1.0 0.00 0.01 0.00 63 1020.4
20260831211428 80 122 1.0 1.0 0.00 0.01 0.00 64 1020.4
20260831211324 80 128 1.0 2.0 0.00 0.01 0.00 64 1020.4
20260831211219 80 134 0.0 1.0 0.00 0.01 0.00 64 1020.6
20260831211131 80 134 1.0 1.0 0.00 0.01 0.00 64 1020.6
20260831211026 80 134 0.0 1.0 0.00 0.01 0.00 64 1020.4
20260831210942 80 134 1.0 2.0 0.00 0.01 0.00 64 1020.4
20260831210818 80 0.0 0.0 0.00 0.01 0.00 64 1020.6
20260831210729 80 133 0.0 1.0 0.00 0.01 0.00 64 1020.5
20260831210625 80 133 0.0 1.0 0.00 0.01 0.00 64 1020.5
20260831210520 80 0.0 0.0 0.00 0.01 0.00 64 1020.4
20260831210416 80 133 0.0 1.0 0.00 0.01 0.00 65 1020.5
20260831210328 80 133 0.0 1.0 0.00 0.01 0.00 65 1020.4
20260831210223 79 0.0 0.0 0.00 0.01 0.00 65 1020.5
20260831210119 79 133 0.0 1.0 0.00 0.01 0.00 64 1020.5
20260831210030 79 133 1.0 1.0 0.00 0.01 0.00 64 1020.6
20260831205945 79 133 1.0 2.0 0.00 0.01 0.00 65 1020.5
20260831205821 79 133 1.0 1.0 0.00 0.01 0.00 64 1020.5
20260831205717 79 134 0.0 1.0 0.00 0.01 0.00 64 1020.6
20260831205708 79 134 1.0 1.0 0.00 0.01 0.00 65 1020.6
20260831205524 79 134 0.0 1.0 0.00 0.01 0.00 65 1020.5
20260831205420 79 134 0.0 1.0 0.00 0.01 0.00 65 1020.7
20260831205315 79 134 1.0 2.0 0.00 0.01 0.00 65 1020.8
20260831205247 79 133 1.0 1.0 0.00 0.01 0.00 65 1020.7
20260831205122 79 133 1.0 1.0 0.00 0.01 0.00 64 1020.5
20260831205018 79 132 1.0 1.0 0.00 0.01 0.00 65 1020.6
20260831204929 79 131 1.0 1.0 0.00 0.01 0.00 65 1020.6
20260831204825 79 131 0.0 1.0 0.00 0.01 0.00 65 1020.7
20260831204721 79 131 1.0 2.0 0.00 0.01 0.00 65 1020.5
20260831204636 79 132 1.0 2.0 0.00 0.01 0.00 64 1020.6
20260831204528 79 132 0.0 1.0 0.00 0.01 0.00 64 1020.5
20260831204424 79 131 0.0 1.0 0.00 0.01 0.00 64 1020.4
20260831204319 79 130 1.0 2.0 0.00 0.01 0.00 64 1020.6
20260831204231 79 132 1.0 2.0 0.00 0.01 0.00 64 1020.6
20260831204126 79 133 1.0 2.0 0.00 0.01 0.00 64 1020.5
20260831204022 79 120 2.0 3.0 0.00 0.01 0.00 64 1020.5
20260831203917 79 93 1.0 2.0 0.00 0.01 0.00 64 1020.6
20260831203829 79 90 2.0 3.0 0.00 0.01 0.00 64 1020.6
20260831203724 79 133 1.0 2.0 0.00 0.01 0.00 64 1020.6
20260831203620 79 142 1.0 2.0 0.00 0.01 0.00 64 1020.6
20260831203516 79 144 2.0 3.0 0.00 0.01 0.00 64 1020.5
20260831203427 79 149 1.0 1.0 0.00 0.01 0.00 65 1020.6
20260831203323 79 150 1.0 2.0 0.00 0.01 0.00 65 1020.5
20260831203258 79 118 1.0 3.0 0.00 0.01 0.00 65 1020.5
20260831203130 79 89 1.0 2.0 0.00 0.01 0.00 66 1020.6
20260831203026 79 96 0.0 1.0 0.00 0.01 0.00 65 1020.6
20260831202921 79 96 0.0 1.0 0.00 0.01 0.00 65 1020.7
20260831202816 79 90 2.0 2.0 0.00 0.01 0.00 65 1020.7
20260831202728 78 117 2.0 2.0 0.00 0.01 0.00 65 1020.5
20260831202624 78 133 1.0 1.0 0.00 0.01 0.00 65 1020.5
20260831202600 78 135 2.0 3.0 0.00 0.01 0.00 65 1020.6
20260831202415 78 109 2.0 2.0 0.00 0.01 0.00 65 1020.6
20260831202347 78 105 2.0 2.0 0.00 0.01 0.00 65 1020.7
20260831202242 78 99 1.0 1.0 0.00 0.01 0.00 65 1020.7
20260831202118 78 100 2.0 2.0 0.00 0.01 0.00 65 1020.7
20260831202030 78 102 1.0 1.0 0.00 0.01 0.00 65 1020.8
20260831201925 78 102 1.0 2.0 0.00 0.01 0.00 64 1020.9
20260831201821 78 102 2.0 3.0 0.00 0.01 0.00 64 1020.8
20260831201716 78 106 1.0 2.0 0.00 0.01 0.00 64 1020.9
20260831201628 78 91 2.0 3.0 0.00 0.01 0.00 65 1020.9
20260831201524 78 100 2.0 4.0 0.00 0.01 0.00 65 1021.0
20260831201419 78 68 2.0 2.0 0.00 0.01 0.00 65 1021.0
20260831201331 78 124 1.0 1.0 0.00 0.01 0.00 65 1020.8
20260831201247 78 124 0.0 1.0 0.00 0.01 0.00 65 1020.8
20260831201122 78 124 1.0 1.0 0.00 0.01 0.00 64 1020.9
20260831201018 78 125 1.0 2.0 0.00 0.01 0.00 64 1020.9
20260831200930 78 124 1.0 2.0 0.00 0.01 0.00 64 1020.9
20260831200825 78 122 2.0 2.0 0.00 0.01 0.00 64 1021.0
20260831200721 78 117 2.0 3.0 0.00 0.01 0.00 64 1020.9
20260831200616 78 137 2.0 2.0 0.00 0.01 0.00 65 1020.9
20260831200528 78 137 0.0 2.0 0.00 0.01 0.00 65 1021.0
20260831200424 78 134 2.0 2.0 0.00 0.01 0.00 65 1021.0
20260831200319 78 133 1.0 1.0 0.00 0.01 0.00 65 1021.1
20260831200231 78 133 0.0 1.0 0.00 0.01 0.00 65 1021.2
20260831200126 78 133 0.0 1.0 0.00 0.01 0.00 65 1021.0
20260831200022 78 132 1.0 1.0 0.00 0.01 0.00 65 1021.1
20260831195917 78 133 1.0 1.0 0.00 0.01 0.00 64 1021.2
20260831195849 78 0.0 0.0 0.00 0.01 0.00 64 1021.0
20260831195725 78 130 2.0 2.0 0.00 0.01 0.00 64 1020.9
20260831195621 78 105 2.0 3.0 0.00 0.01 0.00 65 1020.9
20260831195516 78 111 1.0 2.0 0.00 0.01 0.00 65 1021.2
20260831195428 78 111 1.0 2.0 0.00 0.01 0.00 65 1021.2
20260831195323 78 111 1.0 2.0 0.00 0.01 0.00 64 1021.3
20260831195219 78 114 2.0 3.0 0.00 0.01 0.00 64 1021.1
20260831195130 78 100 2.0 3.0 0.00 0.01 0.00 64 1021.0
20260831195026 78 94 2.0 3.0 0.00 0.01 0.00 64 1021.2
20260831194921 78 82 1.0 1.0 0.00 0.01 0.00 64 1021.2
20260831194817 78 82 2.0 3.0 0.00 0.01 0.00 64 1021.3
20260831194729 78 86 2.0 3.0 0.00 0.01 0.00 64 1021.2
20260831194644 78 84 2.0 3.0 0.00 0.01 0.00 64 1021.2
20260831194520 78 98 1.0 3.0 0.00 0.01 0.00 65 1021.2
20260831194415 78 98 2.0 2.0 0.00 0.01 0.00 65 1021.3
20260831194327 78 120 1.0 1.0 0.00 0.01 0.00 64 1021.2
20260831194222 78 108 2.0 3.0 0.00 0.01 0.00 64 1021.3
20260831194118 78 78 2.0 3.0 0.00 0.01 0.00 65 1021.2
20260831194030 78 110 1.0 2.0 0.00 0.01 0.00 65 1021.2
20260831193925 78 112 1.0 2.0 0.00 0.01 0.00 65 1021.2
20260831193821 78 112 1.0 2.0 0.00 0.01 0.00 65 1021.3
20260831193716 78 116 1.0 1.0 0.00 0.01 0.00 65 1021.4
20260831193628 78 116 1.0 2.0 0.00 0.01 0.00 65 1021.3
20260831193524 78 120 2.0 3.0 0.00 0.01 0.00 65 1021.4
20260831193419 78 0.0 0.0 0.00 0.01 0.00 64 1021.2
20260831193315 78 120 0.0 1.0 0.00 0.01 0.00 64 1021.3
20260831193227 78 120 1.0 2.0 0.00 0.01 0.00 64 1021.3
20260831193122 78 121 1.0 2.0 0.00 0.01 0.00 64 1021.3
20260831193038 78 114 2.0 2.0 0.00 0.01 0.00 64 1021.2
20260831192930 78 90 1.0 1.0 0.00 0.01 0.00 64 1021.3
20260831192825 78 90 1.0 2.0 0.00 0.01 0.00 64 1021.5
20260831192721 78 90 1.0 2.0 0.00 0.01 0.00 64 1021.5
20260831192616 78 84 1.0 2.0 0.00 0.01 0.00 64 1021.5
20260831192528 78 84 1.0 2.0 0.00 0.01 0.00 64 1021.1
20260831192423 78 101 2.0 2.0 0.00 0.01 0.00 64 1021.3
20260831192319 78 116 2.0 3.0 0.00 0.01 0.00 64 1021.5
20260831192231 78 124 1.0 2.0 0.00 0.01 0.00 64 1021.3
20260831192126 78 110 2.0 3.0 0.00 0.01 0.00 63 1021.3
20260831192022 78 101 2.0 3.0 0.00 0.01 0.00 63 1021.3
20260831191917 78 88 3.0 4.0 0.00 0.01 0.00 63 1021.4
20260831191849 78 97 3.0 3.0 0.00 0.01 0.00 63 1021.4
20260831191725 78 119 2.0 3.0 0.00 0.01 0.00 63 1021.3
20260831191620 78 79 3.0 6.0 0.00 0.01 0.00 63 1021.5
20260831191548 78 99 2.0 3.0 0.00 0.01 0.00 63 1021.5
20260831191323 78 89 2.0 3.0 0.00 0.01 0.00 63 1021.4
20260831191219 78 92 1.0 2.0 0.00 0.01 0.00 63 1021.3
20260831191130 78 88 1.0 1.0 0.00 0.01 0.00 63 1021.5
20260831191026 78 81 2.0 3.0 0.00 0.01 0.00 63 1021.4
20260831190921 78 121 2.0 2.0 0.00 0.01 0.00 62 1021.4
20260831190817 78 128 2.0 2.0 0.00 0.01 0.00 63 1021.6
20260831190729 78 132 1.0 2.0 0.00 0.01 0.00 63 1021.4
20260831190624 78 129 2.0 3.0 0.00 0.01 0.00 63 1021.5
20260831190600 78 135 1.0 3.0 0.00 0.01 0.00 62 1021.5
20260831190415 78 134 2.0 4.0 0.00 0.01 0.00 62 1021.5
20260831190327 79 117 2.0 6.0 0.00 0.01 0.00 62 1021.5
20260831190223 79 102 2.0 3.0 0.00 0.01 0.00 62 1021.5
20260831190138 79 87 2.0 3.0 0.00 0.01 0.00 62 1021.6
20260831190030 79 88 2.0 6.0 0.00 0.01 0.00 62 1021.5
20260831185925 79 124 1.0 3.0 0.00 0.01 0.00 62 1021.5
20260831185821 79 61 4.0 4.0 0.00 0.01 0.00 62 1021.5
20260831185717 79 88 2.0 3.0 0.00 0.01 0.00 62 1021.4
20260831185628 79 85 2.0 4.0 0.00 0.01 0.00 62 1021.4
20260831185544 79 116 2.0 3.0 0.00 0.01 0.00 61 1021.5
20260831185420 79 107 3.0 4.0 0.00 0.01 0.00 62 1021.4
20260831185315 79 91 2.0 3.0 0.00 0.01 0.00 62 1021.3
20260831185227 79 75 3.0 3.0 0.00 0.01 0.00 62 1021.4
20260831185123 79 81 3.0 3.0 0.00 0.01 0.00 62 1021.5
20260831185018 79 97 4.0 7.0 0.00 0.01 0.00 62 1021.5
20260831184949 79 92 2.0 3.0 0.00 0.01 0.00 62 1021.5
20260831184825 79 77 2.0 3.0 0.00 0.01 0.00 62 1021.5
20260831184721 79 75 2.0 3.0 0.00 0.01 0.00 62 1021.5
20260831184636 79 73 3.0 4.0 0.00 0.01 0.00 62 1021.3
20260831184528 79 104 1.0 2.0 0.00 0.01 0.00 62 1021.4
20260831184424 79 110 1.0 2.0 0.00 0.01 0.00 62 1021.3
20260831184359 79 112 2.0 3.0 0.00 0.01 0.00 62 1021.3
20260831184231 79 91 1.0 2.0 0.00 0.01 0.00 62 1021.3
20260831184126 79 92 1.0 2.0 0.00 0.01 0.00 62 1021.3
20260831184022 79 87 1.0 2.0 0.00 0.01 0.00 61 1021.4
20260831183938 79 88 1.0 2.0 0.00 0.01 0.00 61 1021.4
20260831183829 79 87 1.0 2.0 0.00 0.01 0.00 60 1021.4
20260831183725 79 106 3.0 4.0 0.00 0.01 0.00 60 1021.6
20260831183620 79 112 3.0 4.0 0.00 0.01 0.00 61 1021.5
20260831183516 79 97 2.0 3.0 0.00 0.01 0.00 61 1021.6
20260831183427 79 88 1.0 2.0 0.00 0.01 0.00 60 1021.5
20260831183323 79 88 2.0 4.0 0.00 0.01 0.00 60 1021.4
20260831183238 79 117 1.0 2.0 0.00 0.01 0.00 60 1021.5
20260831183130 80 120 2.0 3.0 0.00 0.01 0.00 60 1021.5
20260831183026 80 101 3.0 4.0 0.00 0.01 0.00 59 1021.4
20260831182921 80 115 3.0 4.0 0.00 0.01 0.00 59 1021.5
20260831182817 80 110 3.0 4.0 0.00 0.01 0.00 59 1021.6
20260831182728 80 117 3.0 4.0 0.00 0.01 0.00 60 1021.3
20260831182624 80 94 1.0 2.0 0.00 0.01 0.00 59 1021.4
20260831182520 80 98 2.0 2.0 0.00 0.01 0.00 58 1021.7
20260831182435 80 108 2.0 4.0 0.00 0.01 0.00 58 1021.5
20260831182327 81 120 4.0 6.0 0.00 0.01 0.00 58 1021.5
20260831182223 81 74 2.0 4.0 0.00 0.01 0.00 58 1021.5
20260831182118 81 132 1.0 2.0 0.00 0.01 0.00 58 1021.5
20260831182030 81 119 1.0 3.0 0.00 0.01 0.00 57 1021.6
20260831181925 81 108 1.0 3.0 0.00 0.01 0.00 56 1021.5
20260831181821 82 102 2.0 4.0 0.00 0.01 0.00 57 1021.4
20260831181737 82 112 3.0 4.0 0.00 0.01 0.00 57 1021.4
20260831181628 82 96 4.0 7.0 0.00 0.01 0.00 56 1021.4
20260831181524 82 87 5.0 7.0 0.00 0.01 0.00 56 1021.5
20260831181440 83 106 3.0 3.0 0.00 0.01 0.00 56 1021.5
20260831181315 83 107 2.0 3.0 0.00 0.01 0.00 55 1021.5
20260831181227 83 145 3.0 3.0 0.00 0.01 0.00 55 1021.5
20260831181122 83 135 2.0 4.0 0.00 0.01 0.00 54 1021.5
20260831181018 83 109 2.0 2.0 0.00 0.01 0.00 53 1021.8
20260831180929 84 96 3.0 4.0 0.00 0.01 0.00 53 1021.4
20260831180825 84 80 2.0 3.0 0.00 0.01 0.00 53 1021.5
20260831180720 84 63 1.0 3.0 0.00 0.01 0.00 55 1021.5
20260831180616 84 0.0 0.0 0.00 0.01 0.00 56 1021.5
20260831180548 84 0.0 0.0 0.00 0.01 0.00 56 1021.5
20260831180424 84 0.0 0.0 0.00 0.01 0.00 56 1021.7
20260831180339 83 109 0.0 1.0 0.00 0.01 0.00 56 1021.7
20260831180231 83 109 0.0 1.0 0.00 0.01 0.00 56 1021.5
20260831180127 83 0.0 0.0 0.00 0.01 0.00 56 1021.5
20260831180022 83 108 0.0 1.0 0.00 0.01 0.00 56 1021.6
20260831175917 83 0.0 0.0 0.00 0.01 0.00 55 1021.7
20260831175829 83 108 1.0 1.0 0.00 0.01 0.00 54 1021.6
20260831175745 83 106 0.0 1.0 0.00 0.01 0.00 55 1021.7
20260831175620 83 106 1.0 1.0 0.00 0.01 0.00 54 1021.7
20260831175516 83 106 0.0 1.0 0.00 0.01 0.00 54 1021.7
20260831175428 83 110 1.0 2.0 0.00 0.01 0.00 53 1021.7
20260831175323 83 123 2.0 3.0 0.00 0.01 0.00 55 1021.6
20260831175219 83 161 1.0 1.0 0.00 0.01 0.00 55 1021.6
20260831175131 83 161 0.0 1.0 0.00 0.01 0.00 56 1021.4
20260831175026 83 162 1.0 1.0 0.00 0.01 0.00 55 1021.6
20260831174922 83 162 0.0 1.0 0.00 0.01 0.00 56 1021.7
20260831174817 83 162 0.0 1.0 0.00 0.01 0.00 55 1021.7
20260831174729 83 0.0 0.0 0.00 0.01 0.00 55 1021.6
20260831174625 83 161 0.0 1.0 0.00 0.01 0.00 54 1021.6
20260831174521 84 161 1.0 2.0 0.00 0.01 0.00 53 1021.6
20260831174416 84 161 0.0 1.0 0.00 0.01 0.00 52 1021.6
20260831174328 84 161 0.0 2.0 0.00 0.01 0.00 53 1021.7
20260831174302 84 162 0.0 1.0 0.00 0.01 0.00 54 1021.7
20260831174118 84 0.0 0.0 0.00 0.01 0.00 53 1021.8
20260831174030 84 162 0.0 1.0 0.00 0.01 0.00 53 1021.7
20260831173925 84 197 1.0 2.0 0.00 0.01 0.00 54 1021.7
20260831173841 84 0.0 0.0 0.00 0.01 0.00 54 1021.8
20260831173716 85 0.0 0.0 0.00 0.01 0.00 52 1021.6
20260831173628 85 252 0.0 1.0 0.00 0.01 0.00 54 1021.6
20260831173524 85 252 0.0 1.0 0.00 0.01 0.00 53 1021.7
20260831173419 85 252 0.0 1.0 0.00 0.01 0.00 54 1021.6
20260831173331 85 253 0.0 1.0 0.00 0.01 0.00 55 1021.8
20260831173227 85 253 0.0 1.0 0.00 0.01 0.00 53 1021.7
20260831173138 85 253 0.0 1.0 0.00 0.01 0.00 56 1021.7
20260831172929 85 253 0.0 1.0 0.00 0.01 0.00 56 1021.6
20260831172825 85 253 0.0 1.0 0.00 0.01 0.00 56 1021.6
20260831172721 85 0.0 0.0 0.00 0.01 0.00 55 1021.8
20260831172636 84 253 0.0 1.0 0.00 0.01 0.00 54 1021.8
20260831172548 84 253 1.0 1.0 0.00 0.01 0.00 54 1021.7
20260831172423 84 253 1.0 1.0 0.00 0.01 0.00 54 1021.4
20260831172319 84 252 2.0 2.0 0.00 0.01 0.00 52 1021.5
20260831172231 84 250 2.0 3.0 0.00 0.01 0.00 53 1021.6
20260831172126 84 238 3.0 3.0 0.00 0.01 0.00 53 1021.6
20260831172022 84 218 1.0 3.0 0.00 0.01 0.00 55 1021.5
20260831171917 84 0.0 0.0 0.00 0.01 0.00 55 1021.4
20260831171829 84 131 1.0 1.0 0.00 0.01 0.00 54 1021.6
20260831171725 84 131 0.0 1.0 0.00 0.01 0.00 53 1021.6
20260831171620 84 131 0.0 1.0 0.00 0.01 0.00 54 1021.6
20260831171516 84 131 1.0 1.0 0.00 0.01 0.00 54 1021.4
20260831171428 84 129 1.0 2.0 0.00 0.01 0.00 54 1021.6
20260831171323 84 127 1.0 2.0 0.00 0.01 0.00 55 1021.6
20260831171238 84 138 1.0 2.0 0.00 0.01 0.00 55 1021.6
20260831171130 84 142 1.0 2.0 0.00 0.01 0.00 55 1021.6
20260831171025 84 0.0 0.0 0.00 0.01 0.00 55 1021.6
20260831170921 84 145 0.0 1.0 0.00 0.01 0.00 53 1021.6
20260831170816 84 145 1.0 1.0 0.00 0.01 0.00 55 1021.6
20260831170728 84 145 0.0 1.0 0.00 0.01 0.00 54 1021.5
20260831170624 84 146 1.0 2.0 0.00 0.01 0.00 52 1021.5
20260831170520 84 153 1.0 2.0 0.00 0.01 0.00 56 1021.6
20260831170415 84 249 1.0 1.0 0.00 0.01 0.00 56 1021.5
20260831170327 84 218 2.0 3.0 0.00 0.01 0.00 57 1021.7
20260831170222 84 0.0 0.0 0.00 0.01 0.00 56 1021.6
20260831170118 84 0.0 0.0 0.00 0.01 0.00 55 1021.6
20260831170110 84 102 1.0 1.0 0.00 0.01 0.00 54 1021.5
20260831165945 84 101 1.0 2.0 0.00 0.01 0.00 54 1021.6
20260831165841 84 99 2.0 2.0 0.00 0.01 0.00 53 1021.6
20260831165716 84 89 1.0 2.0 0.00 0.01 0.00 55 1021.7
20260831165628 84 308 0.0 1.0 0.00 0.01 0.00 56 1021.6
20260831165524 83 302 1.0 1.0 0.00 0.01 0.00 55 1021.7
20260831165419 83 297 0.0 1.0 0.00 0.01 0.00 54 1021.7
20260831165315 83 296 1.0 2.0 0.00 0.01 0.00 54 1021.5
20260831165227 83 270 1.0 3.0 0.00 0.01 0.00 56 1021.5
20260831165142 83 143 1.0 3.0 0.00 0.01 0.00 55 1021.5
20260831165038 83 119 1.0 3.0 0.00 0.01 0.00 56 1021.5
20260831164929 83 64 1.0 1.0 0.00 0.01 0.00 55 1021.7
20260831164825 83 75 1.0 3.0 0.00 0.01 0.00 53 1021.6
20260831164721 83 68 2.0 3.0 0.00 0.01 0.00 56 1021.6
20260831164616 83 31 1.0 2.0 0.00 0.01 0.00 56 1021.7
20260831164528 83 55 1.0 2.0 0.00 0.01 0.00 57 1021.7
20260831164423 83 77 0.0 2.0 0.00 0.01 0.00 57 1021.7
20260831164319 82 111 1.0 1.0 0.00 0.01 0.00 57 1021.7
20260831164251 82 106 1.0 1.0 0.00 0.01 0.00 57 1021.7
20260831164126 82 92 1.0 2.0 0.00 0.01 0.00 57 1021.7
20260831164022 82 90 1.0 2.0 0.00 0.01 0.00 57 1021.7
20260831163917 82 90 1.0 2.0 0.00 0.01 0.00 56 1021.8
20260831163829 82 95 2.0 2.0 0.00 0.01 0.00 55 1021.6
20260831163724 82 104 3.0 3.0 0.00 0.01 0.00 56 1021.7
20260831163620 82 87 2.0 3.0 0.00 0.01 0.00 57 1021.7
20260831163536 82 90 1.0 1.0 0.00 0.01 0.00 56 1021.8
20260831163428 82 89 2.0 3.0 0.00 0.01 0.00 54 1021.6
20260831163323 82 119 2.0 3.0 0.00 0.01 0.00 56 1021.6
20260831163219 82 127 2.0 3.0 0.00 0.01 0.00 56 1021.6
20260831163131 82 137 1.0 3.0 0.00 0.01 0.00 57 1021.7
20260831163046 82 280 1.0 1.0 0.00 0.01 0.00 58 1021.7
20260831162921 82 254 1.0 1.0 0.00 0.01 0.00 57 1021.7
20260831162837 82 254 1.0 1.0 0.00 0.01 0.00 58 1021.7
20260831162729 82 254 0.0 1.0 0.00 0.01 0.00 59 1021.7
20260831162624 81 254 0.0 1.0 0.00 0.01 0.00 59 1021.8
20260831162520 81 254 1.0 1.0 0.00 0.01 0.00 58 1021.9
20260831162415 81 254 0.0 1.0 0.00 0.01 0.00 59 1021.8
20260831162347 81 0.0 0.0 0.00 0.01 0.00 60 1021.7
20260831162223 81 252 0.0 1.0 0.00 0.01 0.00 59 1021.7
20260831162118 81 253 1.0 2.0 0.00 0.01 0.00 58 1021.6
20260831162030 81 253 0.0 2.0 0.00 0.01 0.00 58 1021.8
20260831161925 81 254 0.0 1.0 0.00 0.01 0.00 58 1021.7
20260831161821 81 237 1.0 2.0 0.00 0.01 0.00 59 1021.9
20260831161716 80 238 0.0 2.0 0.00 0.01 0.00 59 1021.9
20260831161648 80 237 1.0 3.0 0.00 0.01 0.00 57 1021.8
20260831161524 80 236 1.0 2.0 0.00 0.01 0.00 56 1021.9
20260831161439 80 237 2.0 3.0 0.00 0.01 0.00 57 1021.8
20260831161315 80 245 2.0 3.0 0.00 0.01 0.00 56 1021.8
20260831161247 80 243 2.0 2.0 0.00 0.01 0.00 59 1021.9
20260831161122 80 212 1.0 2.0 0.00 0.01 0.00 60 1021.8
20260831161018 80 70 0.0 1.0 0.00 0.01 0.00 60 1021.9
20260831160929 80 70 1.0 2.0 0.00 0.01 0.00 60 1021.9
20260831160825 80 0.0 0.0 0.00 0.01 0.00 60 1021.9
20260831160720 80 0.0 0.0 0.00 0.01 0.00 59 1021.9
20260831160616 80 70 1.0 2.0 0.00 0.01 0.00 59 1022.0
20260831160528 80 30 0.0 2.0 0.00 0.01 0.00 59 1021.9
20260831160423 80 60 1.0 2.0 0.00 0.01 0.00 57 1021.9
20260831160319 80 89 1.0 2.0 0.00 0.01 0.00 57 1022.0
20260831160230 80 90 0.0 1.0 0.00 0.01 0.00 57 1021.8
20260831160126 80 90 2.0 2.0 0.00 0.01 0.00 57 1021.8
20260831160022 80 74 3.0 4.0 0.00 0.01 0.00 58 1021.8
20260831155917 80 104 2.0 3.0 0.00 0.01 0.00 58 1022.0
20260831155829 80 86 2.0 3.0 0.00 0.01 0.00 57 1021.9
20260831155725 80 88 2.0 3.0 0.00 0.01 0.00 59 1022.0
20260831155620 80 241 0.0 1.0 0.00 0.01 0.00 59 1021.9
20260831155516 80 0.0 0.0 0.00 0.01 0.00 59 1021.9
20260831155427 80 241 0.0 1.0 0.00 0.01 0.00 58 1022.0
20260831155323 80 241 0.0 1.0 0.00 0.01 0.00 57 1021.9
20260831155218 80 240 1.0 2.0 0.00 0.01 0.00 56 1022.0
20260831155130 80 249 2.0 3.0 0.00 0.01 0.00 55 1022.0
20260831155025 81 251 3.0 4.0 0.00 0.01 0.00 55 1022.0
20260831154941 81 242 3.0 4.0 0.00 0.01 0.00 54 1022.1
20260831154816 81 244 3.0 4.0 0.00 0.01 0.00 54 1022.1
20260831154748 81 238 3.0 4.0 0.00 0.01 0.00 55 1021.9
20260831154623 82 277 2.0 3.0 0.00 0.01 0.00 57 1021.9
20260831154518 82 295 2.0 2.0 0.00 0.01 0.00 57 1021.9
20260831154430 82 265 1.0 2.0 0.00 0.01 0.00 55 1022.0
20260831154326 82 248 2.0 3.0 0.00 0.01 0.00 53 1022.0
20260831154241 82 248 0.0 1.0 0.00 0.01 0.00 54 1022.0
20260831154117 82 272 1.0 3.0 0.00 0.01 0.00 54 1022.1
20260831154108 82 345 1.0 2.0 0.00 0.01 0.00 56 1022.1
20260831153924 82 297 0.0 1.0 0.00 0.01 0.00 55 1022.1
20260831153820 82 297 1.0 1.0 0.00 0.02 0.00 55 1022.1
20260831153715 82 291 2.0 4.0 0.00 0.02 0.00 56 1022.0
20260831153627 82 305 1.0 3.0 0.00 0.02 0.00 55 1021.9
20260831153603 82 327 1.0 1.0 0.00 0.02 0.00 56 1021.9
20260831153438 82 326 0.0 1.0 0.00 0.02 0.00 58 1021.8
20260831153330 82 325 0.0 1.0 0.00 0.02 0.00 57 1021.9
20260831153245 82 326 0.0 1.0 0.00 0.02 0.00 58 1021.9
20260831153141 82 325 0.0 1.0 0.00 0.02 0.00 56 1022.0
20260831153017 82 326 0.0 1.0 0.00 0.02 0.00 55 1022.1
20260831152948 82 326 0.0 1.0 0.00 0.02 0.00 57 1022.0
20260831152824 82 0.0 0.0 0.00 0.02 0.00 57 1022.1
20260831152740 82 325 1.0 1.0 0.00 0.02 0.00 54 1022.1
20260831152615 82 325 2.0 2.0 0.00 0.02 0.00 55 1021.9
20260831152539 82 33 1.0 2.0 0.00 0.02 0.00 55 1022.1
20260831152422 82 72 0.0 1.0 0.00 0.02 0.00 57 1022.1
20260831152318 82 71 0.0 1.0 0.00 0.02 0.00 57 1022.1
20260831152229 82 71 0.0 1.0 0.00 0.02 0.00 57 1022.0
20260831152205 82 71 1.0 1.0 0.00 0.02 0.00 56 1022.0
20260831152020 82 73 2.0 3.0 0.00 0.02 0.00 56 1022.3
20260831151931 82 84 2.0 3.0 0.00 0.02 0.00 56 1022.2
20260831151825 83 107 3.0 4.0 0.00 0.02 0.00 54 1022.1
20260831151721 83 92 4.0 6.0 0.00 0.02 0.00 54 1022.2
20260831151616 83 302 0.0 1.0 0.00 0.02 0.00 56 1022.1
20260831151528 83 296 1.0 3.0 0.00 0.02 0.00 57 1022.0
20260831151443 83 287 0.0 1.0 0.00 0.02 0.00 57 1022.1
20260831151318 83 287 1.0 2.0 0.00 0.02 0.00 56 1022.4
20260831151250 83 287 2.0 3.0 0.00 0.02 0.00 56 1022.1
20260831151125 83 285 2.0 3.0 0.00 0.02 0.00 55 1022.2
20260831151021 82 281 2.0 3.0 0.00 0.02 0.00 56 1022.2
20260831150917 82 321 1.0 3.0 0.00 0.02 0.00 58 1022.0
20260831150829 82 309 3.0 4.0 0.00 0.02 0.00 60 1022.3
20260831150724 82 302 1.0 1.0 0.00 0.02 0.00 59 1022.3
20260831150619 82 303 0.0 1.0 0.00 0.02 0.00 58 1022.2
20260831150531 82 305 1.0 2.0 0.00 0.02 0.00 58 1022.2
20260831150427 82 312 0.0 2.0 0.00 0.02 0.00 59 1022.2
20260831150322 82 49 1.0 1.0 0.00 0.02 0.00 60 1022.2
20260831150218 81 49 0.0 1.0 0.00 0.02 0.00 60 1022.2
20260831150129 81 49 1.0 1.0 0.00 0.02 0.00 61 1022.1
20260831150025 81 66 1.0 2.0 0.00 0.02 0.00 62 1022.1
20260831145921 81 105 1.0 1.0 0.00 0.02 0.00 61 1022.3
20260831145816 81 108 0.0 1.0 0.00 0.02 0.00 60 1022.2
20260831145728 81 110 1.0 2.0 0.00 0.02 0.00 58 1022.0
20260831145623 81 112 2.0 4.0 0.00 0.02 0.00 60 1022.3
20260831145519 81 322 1.0 1.0 0.00 0.02 0.00 62 1022.4
20260831145430 80 318 2.0 3.0 0.00 0.02 0.00 62 1022.3
20260831145346 80 300 1.0 2.0 0.00 0.02 0.00 61 1022.3
20260831145222 80 281 1.0 3.0 0.00 0.02 0.00 62 1022.3
20260831145117 80 287 1.0 1.0 0.00 0.02 0.00 62 1022.2
20260831145029 80 305 2.0 2.0 0.00 0.02 0.00 62 1022.2
20260831144925 79 68 2.0 2.0 0.00 0.02 0.00 63 1022.4
20260831144820 79 301 1.0 1.0 0.00 0.02 0.00 64 1022.3
20260831144716 79 299 2.0 4.0 0.00 0.02 0.00 63 1022.3
20260831144627 79 312 1.0 3.0 0.00 0.02 0.00 64 1022.5
20260831144523 79 47 0.0 1.0 0.00 0.02 0.00 63 1022.4
20260831144418 79 0.0 0.0 0.00 0.02 0.00 64 1022.3
20260831144330 79 47 0.0 1.0 0.00 0.02 0.00 62 1022.4
20260831144245 78 0.0 0.0 0.00 0.02 0.00 65 1022.4
20260831144121 78 47 1.0 1.0 0.00 0.02 0.00 63 1022.3
20260831144016 78 43 1.0 2.0 0.00 0.02 0.00 65 1022.3
20260831143928 78 0.0 0.0 0.00 0.02 0.00 66 1022.4
20260831143824 78 34 1.0 1.0 0.00 0.02 0.00 67 1022.4
20260831143759 78 34 0.0 1.0 0.00 0.02 0.00 67 1022.4
20260831143631 78 34 0.0 1.0 0.00 0.02 0.00 66 1022.2
20260831143526 78 35 0.0 1.0 0.00 0.02 0.00 65 1022.5
20260831143422 78 35 1.0 1.0 0.00 0.02 0.00 64 1022.6
20260831143317 78 0.0 0.0 0.00 0.02 0.00 65 1022.6
20260831143229 77 34 0.0 1.0 0.00 0.02 0.00 65 1022.4
20260831143125 77 35 1.0 1.0 0.00 0.02 0.00 65 1022.4
20260831143020 78 35 1.0 1.0 0.00 0.02 0.00 64 1022.4
20260831142916 77 29 1.0 2.0 0.00 0.02 0.00 66 1022.5
20260831142848 77 355 1.0 2.0 0.00 0.02 0.00 67 1022.2
20260831142723 77 330 0.0 1.0 0.00 0.02 0.00 67 1022.2
20260831142619 77 330 0.0 1.0 0.00 0.02 0.00 68 1022.2
20260831142530 77 330 0.0 1.0 0.00 0.02 0.00 67 1022.4
20260831142446 77 0.0 0.0 0.00 0.02 0.00 66 1022.3
20260831142322 77 329 1.0 3.0 0.00 0.02 0.00 64 1022.3
20260831142237 77 295 3.0 4.0 0.00 0.02 0.00 65 1022.3
20260831142149 77 307 2.0 3.0 0.00 0.02 0.00 66 1022.3
20260831142024 77 309 2.0 2.0 0.00 0.02 0.00 67 1022.3
20260831141940 77 315 1.0 2.0 0.00 0.02 0.00 67 1022.3
20260831141815 77 85 1.0 1.0 0.00 0.02 0.00 67 1022.5
20260831141727 77 319 1.0 2.0 0.00 0.02 0.00 68 1022.3
20260831141623 77 291 1.0 2.0 0.00 0.02 0.00 69 1022.4
20260831141559 77 290 0.0 1.0 0.00 0.02 0.00 68 1022.4
20260831141430 77 290 0.0 1.0 0.00 0.02 0.00 68 1022.3
20260831141326 77 293 1.0 2.0 0.00 0.02 0.00 69 1022.4
20260831141221 77 0.0 0.0 0.00 0.02 0.00 69 1022.3
20260831141117 77 0.0 0.0 0.00 0.02 0.00 68 1022.1
20260831141049 77 297 0.0 1.0 0.00 0.02 0.00 66 1022.4
20260831140924 77 297 0.0 1.0 0.00 0.02 0.00 69 1022.4
20260831140840 77 297 0.0 1.0 0.00 0.02 0.00 69 1022.4
20260831140715 77 320 2.0 4.0 0.00 0.02 0.00 69 1022.4
20260831140627 76 0 0.0 3.0 0.00 0.02 0.00 70 1022.4
20260831140523 76 0.0 0.0 0.00 0.02 0.00 70 1022.5
20260831140418 76 0.0 0.0 0.00 0.02 0.00 69 1022.5
20260831140330 76 289 2.0 2.0 0.00 0.02 0.00 69 1022.4
20260831140246 76 314 2.0 4.0 0.00 0.02 0.00 69 1022.4
20260831140121 76 94 1.0 1.0 0.00 0.02 0.00 68 1022.3
20260831140017 76 96 0.0 1.0 0.00 0.02 0.00 68 1022.5
20260831135928 76 0.0 0.0 0.00 0.02 0.00 68 1022.3
20260831135824 76 95 1.0 2.0 0.00 0.02 0.00 68 1022.2
20260831135720 76 96 0.0 1.0 0.00 0.02 0.00 68 1022.1
20260831135615 76 99 0.0 1.0 0.00 0.02 0.00 69 1022.4
20260831135527 76 98 0.0 1.0 0.00 0.02 0.00 68 1022.2
20260831135422 76 97 1.0 1.0 0.00 0.02 0.00 67 1022.2
20260831135358 76 98 2.0 4.0 0.00 0.02 0.00 70 1022.2
20260831135230 76 93 0.0 2.0 0.00 0.02 0.00 71 1022.1
20260831135125 76 95 0.0 1.0 0.00 0.02 0.00 71 1022.1
20260831135020 76 94 0.0 1.0 0.00 0.02 0.00 71 1022.3
20260831134936 76 0.0 0.0 0.00 0.02 0.00 72 1022.1
20260831134828 76 0.0 0.0 0.00 0.02 0.00 72 1022.3
20260831134723 76 0.0 0.0 0.00 0.02 0.00 72 1022.3
20260831134619 76 0.0 0.0 0.00 0.02 0.00 73 1022.4
20260831134531 76 94 1.0 1.0 0.00 0.02 0.00 73 1022.2
20260831134426 76 94 0.0 1.0 0.00 0.02 0.00 72 1022.2
20260831134322 76 0.0 0.0 0.00 0.02 0.00 71 1022.2
20260831134218 76 0.0 0.0 0.00 0.02 0.00 70 1022.3
20260831134129 76 94 0.0 1.0 0.00 0.02 0.00 70 1022.1
20260831134045 76 94 1.0 2.0 0.00 0.02 0.00 72 1022.1
20260831133920 76 94 1.0 1.0 0.00 0.02 0.00 73 1022.4
20260831133816 76 95 1.0 1.0 0.00 0.02 0.00 73 1022.3
20260831133748 75 0.0 0.0 0.00 0.02 0.00 73 1022.2
20260831133623 75 0.0 0.0 0.00 0.02 0.00 73 1022.2
20260831133539 75 95 0.0 1.0 0.00 0.02 0.00 73 1022.2
20260831133431 75 78 1.0 3.0 0.00 0.02 0.00 73 1022.2
20260831133326 75 298 1.0 2.0 0.00 0.02 0.00 73 1022.1
20260831133222 75 299 0.0 1.0 0.00 0.02 0.00 73 1022.1
20260831133118 75 0.0 0.0 0.00 0.02 0.00 73 1022.4
20260831133049 75 0.0 0.0 0.00 0.02 0.00 73 1022.1
20260831132925 75 299 0.0 1.0 0.00 0.02 0.00 73 1022.2
20260831132840 75 299 0.0 1.0 0.00 0.02 0.00 73 1022.2
20260831132716 75 299 0.0 1.0 0.00 0.02 0.00 72 1022.3
20260831132628 75 298 1.0 1.0 0.00 0.02 0.00 73 1022.2
20260831132523 75 0.0 0.0 0.00 0.02 0.00 73 1022.2
20260831132419 74 300 1.0 2.0 0.00 0.02 0.00 74 1022.2
20260831132331 74 299 1.0 2.0 0.00 0.02 0.00 76 1022.3
20260831132226 74 301 1.0 2.0 0.00 0.02 0.00 76 1022.2
20260831132142 74 306 0.0 1.0 0.00 0.02 0.00 77 1022.1
20260831132017 74 0.0 0.0 0.00 0.02 0.00 76 1022.1
20260831131929 74 306 0.0 1.0 0.00 0.02 0.00 76 1022.0
20260831131824 74 307 0.0 1.0 0.00 0.02 0.00 75 1021.9
20260831131720 74 306 0.0 1.0 0.00 0.02 0.00 76 1021.9
20260831131616 74 0.0 0.0 0.00 0.02 0.00 77 1022.1
20260831131527 73 0.0 0.0 0.00 0.02 0.00 77 1022.1
20260831131423 73 0.0 0.0 0.00 0.02 0.00 76 1022.1
20260831131318 73 0.0 0.0 0.00 0.02 0.00 76 1022.1
20260831131230 73 0.0 0.0 0.00 0.02 0.00 76 1022.1
20260831131126 73 0.0 0.0 0.00 0.02 0.00 76 1022.2
20260831131021 73 0.0 0.0 0.00 0.02 0.00 75 1022.3
20260831130917 73 305 1.0 2.0 0.00 0.02 0.00 74 1022.2
20260831130828 73 303 2.0 3.0 0.00 0.02 0.00 75 1022.1
20260831130804 73 295 1.0 3.0 0.00 0.02 0.00 76 1022.3
20260831130619 73 304 0.0 1.0 0.00 0.02 0.00 76 1022.1
20260831130515 73 304 1.0 1.0 0.00 0.02 0.00 76 1022.2
20260831130427 73 304 0.0 1.0 0.00 0.02 0.00 76 1022.2
20260831130402 73 303 1.0 2.0 0.00 0.02 0.00 76 1022.1
20260831130238 73 314 3.0 4.0 0.00 0.02 0.00 77 1022.1
20260831130129 73 321 2.0 3.0 0.00 0.02 0.00 77 1022.1
20260831130025 73 299 1.0 2.0 0.00 0.02 0.00 77 1022.2
20260831125920 73 300 0.0 1.0 0.00 0.02 0.00 78 1022.2
20260831125815 73 0.0 0.0 0.00 0.02 0.00 78 1022.1
20260831125727 73 0.0 0.0 0.00 0.02 0.00 78 1022.1
20260831125622 73 300 1.0 1.0 0.00 0.02 0.00 78 1022.1
20260831125518 73 300 1.0 2.0 0.00 0.02 0.00 77 1022.4
20260831125429 73 300 1.0 2.0 0.00 0.02 0.00 77 1022.3
20260831125325 73 301 2.0 3.0 0.00 0.02 0.00 78 1022.3
20260831125221 73 303 1.0 2.0 0.00 0.02 0.00 77 1022.2
20260831125116 72 307 1.0 3.0 0.00 0.02 0.00 78 1022.1
20260831125028 72 290 0.0 1.0 0.00 0.02 0.00 78 1022.1
20260831124923 72 290 0.0 1.0 0.00 0.02 0.00 78 1021.9
20260831124819 72 290 1.0 1.0 0.00 0.02 0.00 77 1022.2
20260831124730 72 293 2.0 3.0 0.00 0.02 0.00 78 1022.1
20260831124706 72 302 0.0 1.0 0.00 0.02 0.00 78 1022.0
20260831124521 72 302 2.0 3.0 0.00 0.02 0.00 79 1022.1
20260831124417 72 313 1.0 2.0 0.00 0.02 0.00 79 1022.1
20260831124329 72 314 1.0 2.0 0.00 0.02 0.00 79 1022.2
20260831124225 72 0.0 0.0 0.00 0.02 0.00 79 1022.2
20260831124120 72 0.0 0.0 0.00 0.02 0.00 79 1022.2
20260831124016 72 0.0 0.0 0.00 0.02 0.00 79 1022.1
20260831123927 72 320 0.0 1.0 0.00 0.02 0.00 79 1022.1
20260831123822 72 320 0.0 1.0 0.00 0.02 0.00 79 1022.1
20260831123718 72 320 0.0 1.0 0.00 0.02 0.00 79 1022.1
20260831123630 71 322 1.0 2.0 0.00 0.02 0.00 79 1022.1
20260831123525 71 326 1.0 2.0 0.00 0.02 0.00 79 1022.1
20260831123421 71 326 1.0 1.0 0.00 0.02 0.00 79 1022.1
20260831123316 71 326 1.0 1.0 0.00 0.02 0.00 79 1022.1
20260831123228 71 326 0.0 1.0 0.00 0.02 0.00 79 1022.3
20260831123123 71 326 1.0 2.0 0.00 0.02 0.00 79 1022.2
20260831123019 71 334 1.0 2.0 0.00 0.02 0.00 78 1022.2
20260831122931 71 334 1.0 2.0 0.00 0.02 0.00 79 1022.2
20260831122826 71 0.0 0.0 0.00 0.02 0.00 79 1022.2
20260831122722 71 336 0.0 2.0 0.00 0.02 0.00 79 1022.2
20260831122618 71 331 1.0 3.0 0.00 0.02 0.00 80 1022.3
20260831122529 71 316 0.0 1.0 0.00 0.02 0.00 80 1022.1
20260831122425 71 315 0.0 1.0 0.00 0.02 0.00 80 1022.2
20260831122321 71 0.0 0.0 0.00 0.02 0.00 80 1022.2
20260831122216 71 316 1.0 2.0 0.00 0.02 0.00 80 1022.2
20260831122128 71 0.0 0.0 0.00 0.02 0.00 80 1022.0
20260831122023 71 315 0.0 1.0 0.00 0.02 0.00 80 1022.0
20260831121919 71 315 1.0 2.0 0.00 0.02 0.00 80 1022.0
20260831121831 71 315 0.0 1.0 0.00 0.02 0.00 80 1022.2
20260831121746 71 0.0 0.0 0.00 0.02 0.00 80 1022.0
20260831121622 71 0.0 0.0 0.00 0.02 0.00 80 1021.9
20260831121538 71 0.0 0.0 0.00 0.02 0.00 80 1022.0
20260831121449 71 0.0 0.0 0.00 0.02 0.00 80 1022.1
20260831121345 71 0.0 0.0 0.00 0.02 0.00 80 1022.0
20260831121220 71 0.0 0.0 0.00 0.02 0.00 80 1021.9
20260831121116 71 0.0 0.0 0.00 0.02 0.00 80 1022.0
20260831121027 71 0.0 0.0 0.00 0.02 0.00 80 1022.2
20260831120923 71 0.0 0.0 0.00 0.02 0.00 80 1022.0
20260831120819 71 0.0 0.0 0.00 0.02 0.00 80 1021.9
20260831120730 71 315 0.0 1.0 0.00 0.02 0.00 80 1022.2
20260831120626 71 315 1.0 1.0 0.00 0.02 0.00 80 1021.9
20260831120521 71 315 0.0 1.0 0.00 0.02 0.00 80 1022.1
20260831120437 71 0.0 0.0 0.00 0.02 0.00 80 1021.8
20260831120329 71 0.0 0.0 0.00 0.02 0.00 80 1021.9
20260831120224 71 315 1.0 1.0 0.00 0.02 0.00 80 1021.9
20260831120120 71 315 1.0 2.0 0.00 0.02 0.00 80 1022.0
20260831120016 71 315 1.0 2.0 0.00 0.02 0.00 80 1022.1
20260831115927 70 0.0 0.0 0.00 0.02 0.00 80 1022.1
20260831115823 70 316 0.0 1.0 0.00 0.02 0.00 80 1022.1
20260831115719 70 316 1.0 1.0 0.00 0.02 0.00 80 1022.1
20260831115630 70 316 1.0 2.0 0.00 0.02 0.00 80 1022.0
20260831115546 70 316 1.0 2.0 0.00 0.02 0.00 81 1022.0
20260831115441 70 307 2.0 2.0 0.00 0.02 0.00 81 1022.0
20260831115317 70 298 1.0 2.0 0.00 0.02 0.00 81 1022.2
20260831115228 70 293 1.0 2.0 0.00 0.02 0.00 81 1022.0
20260831115124 70 293 1.0 1.0 0.00 0.02 0.00 81 1022.0
20260831115020 70 293 0.0 1.0 0.00 0.02 0.00 81 1022.0
20260831114916 70 293 0.0 1.0 0.00 0.02 0.00 81 1021.8
20260831114827 70 0.0 0.0 0.00 0.02 0.00 81 1022.0
20260831114723 70 293 0.0 1.0 0.00 0.02 0.00 81 1021.9
20260831114619 70 293 0.0 1.0 0.00 0.02 0.00 81 1021.9
20260831114530 70 293 0.0 1.0 0.00 0.02 0.00 81 1021.7
20260831114425 69 293 0.0 1.0 0.00 0.02 0.00 82 1021.9
20260831114321 69 0.0 0.0 0.00 0.02 0.00 82 1022.0
20260831114236 69 293 1.0 1.0 0.00 0.02 0.00 82 1021.8
20260831114128 69 293 1.0 2.0 0.00 0.02 0.00 82 1021.9
20260831114044 69 293 1.0 2.0 0.00 0.02 0.00 82 1021.9
20260831113919 69 293 1.0 2.0 0.00 0.02 0.00 82 1021.9
20260831113831 69 293 0.0 1.0 0.00 0.02 0.00 82 1021.8
20260831113727 69 293 1.0 1.0 0.00 0.02 0.00 82 1021.7
20260831113622 69 293 1.0 1.0 0.00 0.02 0.00 82 1021.7
20260831113518 69 293 0.0 1.0 0.00 0.02 0.00 82 1021.7
20260831113450 69 0.0 0.0 0.00 0.02 0.00 81 1021.7
20260831113325 69 0.0 0.0 0.00 0.02 0.00 81 1021.7
20260831113241 69 0.0 0.0 0.00 0.02 0.00 82 1021.8
20260831113116 69 0.0 0.0 0.00 0.02 0.00 82 1021.8
20260831113028 69 293 1.0 1.0 0.00 0.02 0.00 81 1021.6
20260831112923 69 0.0 0.0 0.00 0.02 0.00 81 1021.6
20260831112819 69 293 0.0 1.0 0.00 0.02 0.00 81 1021.6
20260831112730 69 293 0.0 1.0 0.00 0.02 0.00 81 1021.7
20260831112626 69 0.0 0.0 0.00 0.02 0.00 81 1021.7
20260831112542 69 0.0 0.0 0.00 0.02 0.00 81 1021.6
20260831112437 69 293 0.0 1.0 0.00 0.02 0.00 80 1021.6
20260831112329 69 0.0 0.0 0.00 0.02 0.00 80 1021.5
20260831112225 69 0.0 0.0 0.00 0.02 0.00 80 1021.5
20260831112121 69 0.0 0.0 0.00 0.02 0.00 80 1021.5
20260831112016 69 0.0 0.0 0.00 0.02 0.00 80 1021.5
20260831111928 69 0.0 0.0 0.00 0.02 0.00 81 1021.7
20260831111823 69 0.0 0.0 0.00 0.02 0.00 80 1021.5
20260831111739 69 0.0 0.0 0.00 0.02 0.00 80 1021.6
20260831111630 69 0.0 0.0 0.00 0.02 0.00 81 1021.4
20260831111526 69 0.0 0.0 0.00 0.02 0.00 81 1021.7
20260831111442 69 0.0 0.0 0.00 0.02 0.00 81 1021.5
20260831111317 69 0.0 0.0 0.00 0.02 0.00 81 1021.5
20260831111229 69 0.0 0.0 0.00 0.02 0.00 81 1021.5
20260831111145 69 0.0 0.0 0.00 0.02 0.00 81 1021.5
20260831111020 69 293 0.0 1.0 0.00 0.02 0.00 82 1021.5
20260831110916 68 293 1.0 1.0 0.00 0.02 0.00 82 1021.6
20260831110827 68 293 1.0 1.0 0.00 0.02 0.00 81 1021.5
20260831110723 68 293 0.0 1.0 0.00 0.02 0.00 80 1021.5
20260831110619 68 293 0.0 1.0 0.00 0.02 0.00 80 1021.5
20260831110531 68 0.0 0.0 0.00 0.02 0.00 80 1021.6
20260831110446 68 0.0 0.0 0.00 0.02 0.00 80 1021.5
20260831110322 68 0.0 0.0 0.00 0.02 0.00 80 1021.6
20260831110217 68 0.0 0.0 0.00 0.02 0.00 80 1021.9
20260831110129 68 0.0 0.0 0.00 0.02 0.00 80 1021.7
20260831110044 68 0.0 0.0 0.00 0.02 0.00 80 1021.7
20260831105920 68 0.0 0.0 0.00 0.02 0.00 80 1021.8
20260831105816 68 0.0 0.0 0.00 0.02 0.00 80 1021.7
20260831105727 68 0.0 0.0 0.00 0.02 0.00 80 1021.6
20260831105623 68 0.0 0.0 0.00 0.02 0.00 80 1021.5
20260831105518 68 0.0 0.0 0.00 0.02 0.00 80 1021.5
20260831105430 68 0.0 0.0 0.00 0.02 0.00 80 1021.5
20260831105325 68 0.0 0.0 0.00 0.02 0.00 80 1021.5
20260831105221 68 0.0 0.0 0.00 0.02 0.00 80 1021.6
20260831105116 68 0.0 0.0 0.00 0.02 0.00 80 1021.5
20260831105028 68 0.0 0.0 0.00 0.02 0.00 80 1021.6
20260831104944 68 0.0 0.0 0.00 0.02 0.00 80 1021.7
20260831104819 68 0.0 0.0 0.00 0.02 0.00 80 1021.7
20260831104731 68 0.0 0.0 0.00 0.02 0.00 80 1021.5
20260831104647 68 0.0 0.0 0.00 0.02 0.00 81 1021.3
20260831104522 68 0.0 0.0 0.00 0.02 0.00 80 1021.4
20260831104418 68 0.0 0.0 0.00 0.02 0.00 80 1021.4
20260831104330 68 0.0 0.0 0.00 0.02 0.00 80 1021.4
20260831104245 68 0.0 0.0 0.00 0.02 0.00 80 1021.4
20260831104120 68 0.0 0.0 0.00 0.02 0.00 80 1021.6
20260831104016 68 0.0 0.0 0.00 0.02 0.00 80 1021.4
20260831103928 68 0.0 0.0 0.00 0.02 0.00 80 1021.6
20260831103843 68 0.0 0.0 0.00 0.02 0.00 80 1021.5
20260831103719 68 293 0.0 1.0 0.00 0.02 0.00 80 1021.7
20260831103631 68 0.0 0.0 0.00 0.02 0.00 80 1021.7
20260831103526 68 0.0 0.0 0.00 0.02 0.00 80 1021.7
20260831103442 68 0.0 0.0 0.00 0.02 0.00 80 1021.6
20260831103337 68 0.0 0.0 0.00 0.02 0.00 80 1021.6
20260831103229 69 0.0 0.0 0.00 0.02 0.00 80 1021.6
20260831103124 69 0.0 0.0 0.00 0.02 0.00 80 1021.6
20260831103020 69 0.0 0.0 0.00 0.02 0.00 80 1021.6
20260831102915 69 0.0 0.0 0.00 0.02 0.00 80 1021.5
20260831102828 68 0.0 0.0 0.00 0.02 0.00 81 1021.5
20260831102723 68 293 0.0 1.0 0.00 0.02 0.00 81 1021.6
20260831102618 69 293 0.0 1.0 0.00 0.02 0.00 81 1021.6
20260831102530 68 0.0 0.0 0.00 0.02 0.00 80 1021.4
20260831102446 68 0.0 0.0 0.00 0.02 0.00 81 1021.3
20260831102341 68 295 1.0 1.0 0.00 0.02 0.00 81 1021.4
20260831102217 68 295 0.0 1.0 0.00 0.02 0.00 81 1021.3
20260831102128 68 295 1.0 2.0 0.00 0.02 0.00 81 1021.3
20260831102024 68 302 1.0 3.0 0.00 0.02 0.00 81 1021.2
20260831101920 68 0.0 0.0 0.00 0.02 0.00 80 1021.2
20260831101827 68 306 1.0 2.0 0.00 0.02 0.00 80 1021.4
20260831101622 68 312 0.0 1.0 0.00 0.02 0.00 80 1021.1
20260831101518 68 0.0 0.0 0.00 0.02 0.00 79 1021.3
20260831101430 68 0.0 0.0 0.00 0.02 0.00 79 1021.0
20260831101325 68 0.0 0.0 0.00 0.02 0.00 79 1021.2
20260831101221 68 0.0 0.0 0.00 0.02 0.00 79 1021.2
20260831101117 68 0.0 0.0 0.00 0.02 0.00 79 1021.1
20260831101028 69 0.0 0.0 0.00 0.02 0.00 79 1021.0
20260831100944 69 0.0 0.0 0.00 0.02 0.00 79 1020.8
20260831100819 69 0.0 0.0 0.00 0.02 0.00 79 1020.7
20260831100731 69 0.0 0.0 0.00 0.02 0.00 79 1021.0
20260831100626 69 0.0 0.0 0.00 0.02 0.00 79 1021.0
20260831100522 69 0.0 0.0 0.00 0.02 0.00 79 1020.9
20260831100417 69 0.0 0.0 0.00 0.02 0.00 79 1021.0
20260831100329 69 0.0 0.0 0.00 0.02 0.00 79 1021.0
20260831100225 69 0.0 0.0 0.00 0.02 0.00 79 1020.8
20260831100140 69 0.0 0.0 0.00 0.02 0.00 79 1020.9
20260831100016 69 0.0 0.0 0.00 0.02 0.00 79 1020.8
20260831095927 69 0.0 0.0 0.00 0.02 0.00 79 1021.0
20260831095842 69 0.0 0.0 0.00 0.02 0.00 79 1020.9
20260831095718 69 0.0 0.0 0.00 0.02 0.00 79 1020.9
20260831095630 69 0.0 0.0 0.00 0.02 0.00 79 1020.7
20260831095525 69 0.0 0.0 0.00 0.02 0.00 79 1020.9
20260831095421 69 0.0 0.0 0.00 0.02 0.00 79 1021.0
20260831095317 69 0.0 0.0 0.00 0.02 0.00 79 1021.1
20260831095228 69 0.0 0.0 0.00 0.02 0.00 79 1021.0
20260831095124 69 0.0 0.0 0.00 0.02 0.00 80 1020.9
20260831095020 69 0.0 0.0 0.00 0.02 0.00 80 1020.9
20260831094915 69 0.0 0.0 0.00 0.02 0.00 80 1021.0
20260831094846 69 0.0 0.0 0.00 0.02 0.00 80 1020.9
20260831094722 69 0.0 0.0 0.00 0.02 0.00 79 1020.7
20260831094618 69 0.0 0.0 0.00 0.02 0.00 79 1020.9
20260831094549 69 0.0 0.0 0.00 0.02 0.00 79 1020.8
20260831094425 69 312 0.0 1.0 0.00 0.02 0.00 80 1020.8
20260831094320 69 312 0.0 1.0 0.00 0.02 0.00 80 1021.0
20260831094216 69 312 0.0 1.0 0.00 0.02 0.00 80 1020.7
20260831094128 69 312 1.0 1.0 0.00 0.02 0.00 80 1020.8
20260831094023 69 312 0.0 1.0 0.00 0.02 0.00 79 1020.7
20260831093919 69 0.0 0.0 0.00 0.02 0.00 79 1020.9
20260831093831 69 0.0 0.0 0.00 0.02 0.00 78 1020.9
20260831093726 69 0.0 0.0 0.00 0.02 0.00 78 1020.6
20260831093702 69 0.0 0.0 0.00 0.02 0.00 78 1020.8
20260831093537 69 0.0 0.0 0.00 0.02 0.00 78 1020.9
20260831093429 69 0.0 0.0 0.00 0.02 0.00 78 1020.6
20260831093325 69 0.0 0.0 0.00 0.02 0.00 78 1020.7
20260831093220 69 0.0 0.0 0.00 0.02 0.00 78 1020.7
20260831093116 69 0.0 0.0 0.00 0.02 0.00 78 1020.8
20260831093028 69 0.0 0.0 0.00 0.02 0.00 78 1020.5
20260831092923 69 0.0 0.0 0.00 0.02 0.00 78 1020.7
20260831092818 69 0.0 0.0 0.00 0.02 0.00 78 1020.7
20260831092730 69 0.0 0.0 0.00 0.02 0.00 78 1020.6
20260831092646 69 0.0 0.0 0.00 0.02 0.00 78 1020.6
20260831092522 69 0.0 0.0 0.00 0.02 0.00 79 1020.7
20260831092417 69 0.0 0.0 0.00 0.02 0.00 79 1020.7
20260831092329 69 312 1.0 1.0 0.00 0.02 0.00 79 1020.6
20260831092245 69 312 1.0 1.0 0.00 0.02 0.00 79 1020.8
20260831092120 69 312 1.0 1.0 0.00 0.02 0.00 79 1020.8
20260831092032 69 312 0.0 1.0 0.00 0.02 0.00 78 1020.7
20260831091926 69 312 0.0 1.0 0.00 0.02 0.00 78 1020.7
20260831091822 69 312 0.0 1.0 0.00 0.02 0.00 78 1020.7
20260831091718 69 312 0.0 1.0 0.00 0.02 0.00 79 1020.6
20260831091649 69 312 1.0 1.0 0.00 0.02 0.00 78 1020.7
20260831091525 69 312 0.0 1.0 0.00 0.02 0.00 77 1020.7
20260831091421 69 0.0 0.0 0.00 0.02 0.00 77 1020.6
20260831091316 69 0.0 0.0 0.00 0.02 0.00 77 1020.7
20260831091228 69 0.0 0.0 0.00 0.02 0.00 77 1020.6
20260831091123 70 0.0 0.0 0.00 0.02 0.00 77 1020.6
20260831091019 70 0.0 0.0 0.00 0.02 0.00 77 1020.7
20260831090950 70 0.0 0.0 0.00 0.02 0.00 78 1020.7
20260831090906 70 0.0 0.0 0.00 0.02 0.00 77 1020.5
20260831090721 70 312 0.0 1.0 0.00 0.02 0.00 78 1020.5
20260831090617 70 0.0 0.0 0.00 0.02 0.00 78 1020.7
20260831090529 70 312 0.0 1.0 0.00 0.02 0.00 77 1020.6
20260831090424 70 312 0.0 1.0 0.00 0.02 0.00 77 1020.5
20260831090320 70 312 0.0 1.0 0.00 0.02 0.00 77 1020.7
20260831090236 70 312 0.0 1.0 0.00 0.02 0.00 77 1020.8
20260831090143 70 0.0 0.0 0.00 0.02 0.00 76 1020.5
20260831085919 70 312 0.0 1.0 0.00 0.02 0.00 77 1020.8
20260831085830 70 0.0 0.0 0.00 0.02 0.00 77 1020.7
20260831085742 70 0.0 0.0 0.00 0.02 0.00 77 1020.7
20260831085517 70 0.0 0.0 0.00 0.02 0.00 77 1020.7
20260831085429 70 0.0 0.0 0.00 0.02 0.00 76 1020.6
20260831085324 70 0.0 0.0 0.00 0.02 0.00 76 1020.6
20260831085220 70 0.0 0.0 0.00 0.02 0.00 76 1020.7
20260831085116 70 311 0.0 1.0 0.00 0.02 0.00 76 1020.4
20260831085047 70 311 1.0 1.0 0.00 0.02 0.00 77 1020.5
20260831084923 70 311 1.0 2.0 0.00 0.02 0.00 77 1020.5
20260831084818 70 311 1.0 2.0 0.00 0.02 0.00 77 1020.5
20260831084730 70 0.0 0.0 0.00 0.02 0.00 76 1020.4
20260831084626 70 312 0.0 1.0 0.00 0.02 0.00 76 1020.6
20260831084521 70 311 1.0 2.0 0.00 0.02 0.00 76 1020.6
20260831084437 70 312 1.0 2.0 0.00 0.02 0.00 76 1020.7
20260831084329 70 310 2.0 2.0 0.00 0.02 0.00 77 1020.5
20260831084224 70 311 2.0 2.0 0.00 0.02 0.00 77 1020.5
20260831084140 71 312 1.0 1.0 0.00 0.02 0.00 76 1020.6
20260831084015 71 0.0 0.0 0.00 0.02 0.00 76 1020.6
20260831083927 71 0.0 0.0 0.00 0.02 0.00 76 1020.7
20260831083823 71 312 0.0 1.0 0.00 0.02 0.00 76 1020.6
20260831083718 71 312 1.0 1.0 0.00 0.02 0.00 76 1020.6
20260831083630 71 312 1.0 1.0 0.00 0.02 0.00 76 1020.6
20260831083525 71 312 0.0 1.0 0.00 0.02 0.00 76 1020.6
20260831083421 71 311 0.0 1.0 0.00 0.02 0.00 75 1020.6
20260831083316 71 299 2.0 2.0 0.00 0.02 0.00 76 1020.5
20260831083228 71 279 1.0 1.0 0.00 0.02 0.00 76 1020.4
20260831083124 71 279 0.0 1.0 0.00 0.02 0.00 76 1020.4
20260831083019 71 279 1.0 2.0 0.00 0.02 0.00 76 1020.4
20260831082915 71 280 1.0 2.0 0.00 0.02 0.00 75 1020.5
20260831082847 71 280 0.0 1.0 0.00 0.02 0.00 75 1020.5
20260831082742 71 291 1.0 2.0 0.00 0.02 0.00 75 1020.6
20260831082638 71 302 0.0 1.0 0.00 0.02 0.00 75 1020.7
20260831082530 71 301 1.0 2.0 0.00 0.02 0.00 76 1020.9
20260831082425 71 304 2.0 2.0 0.00 0.02 0.00 76 1020.7
20260831082321 71 277 2.0 2.0 0.00 0.02 0.00 76 1020.9
20260831082216 71 275 1.0 1.0 0.00 0.02 0.00 76 1020.7
20260831082128 71 274 0.0 1.0 0.00 0.02 0.00 75 1020.7
20260831082024 71 268 0.0 1.0 0.00 0.02 0.00 75 1020.6
20260831081919 71 268 0.0 1.0 0.00 0.02 0.00 75 1020.6
20260831081831 71 268 2.0 2.0 0.00 0.02 0.00 75 1020.8
20260831081726 71 299 1.0 2.0 0.00 0.02 0.00 76 1020.6
20260831081622 71 305 1.0 2.0 0.00 0.02 0.00 76 1020.5
20260831081537 71 330 2.0 2.0 0.00 0.02 0.00 76 1020.5
20260831081429 71 331 1.0 2.0 0.00 0.02 0.00 76 1020.5
20260831081325 71 331 1.0 2.0 0.00 0.02 0.00 76 1020.6
20260831081220 71 329 3.0 4.0 0.00 0.02 0.00 76 1020.6
20260831081116 71 325 1.0 2.0 0.00 0.02 0.00 76 1020.8
20260831081047 71 321 2.0 3.0 0.00 0.02 0.00 76 1020.5
20260831080923 71 303 1.0 2.0 0.00 0.02 0.00 76 1020.6
20260831080819 71 313 1.0 2.0 0.00 0.02 0.00 76 1020.7
20260831080810 71 310 2.0 3.0 0.00 0.02 0.00 76 1020.6
20260831080626 71 299 1.0 2.0 0.00 0.02 0.00 76 1020.7
20260831080522 71 296 1.0 2.0 0.00 0.02 0.00 76 1020.6
20260831080417 71 308 2.0 3.0 0.00 0.02 0.00 75 1020.6
20260831080329 71 302 2.0 3.0 0.00 0.02 0.00 76 1020.6
20260831080225 71 294 3.0 3.0 0.00 0.02 0.00 76 1020.6
20260831080120 71 288 1.0 2.0 0.00 0.02 0.00 76 1020.6
20260831080016 71 287 0.0 1.0 0.00 0.02 0.00 76 1020.6
20260831075928 71 287 2.0 3.0 0.00 0.02 0.00 76 1020.5
20260831075823 71 308 1.0 1.0 0.00 0.02 0.00 76 1020.5
20260831075719 71 308 1.0 2.0 0.00 0.02 0.00 76 1020.5
20260831075631 71 309 1.0 2.0 0.00 0.02 0.00 76 1020.4
20260831075526 71 308 1.0 1.0 0.00 0.02 0.00 76 1020.3
20260831075422 71 308 1.0 2.0 0.00 0.02 0.00 76 1020.5
20260831075317 71 304 0.0 1.0 0.00 0.02 0.00 76 1020.4
20260831075229 71 305 2.0 3.0 0.00 0.02 0.00 76 1020.4
20260831075124 71 298 2.0 3.0 0.00 0.02 0.00 76 1020.6
20260831075020 71 298 1.0 2.0 0.00 0.02 0.00 76 1020.6
20260831074916 71 293 1.0 2.0 0.00 0.02 0.00 75 1020.6
20260831074828 71 307 1.0 2.0 0.00 0.02 0.00 76 1020.6
20260831074723 71 317 1.0 2.0 0.00 0.02 0.00 76 1020.5
20260831074618 71 318 1.0 2.0 0.00 0.02 0.00 76 1020.5
20260831074530 71 321 1.0 3.0 0.00 0.02 0.00 76 1020.5
20260831074426 71 323 1.0 2.0 0.00 0.02 0.00 76 1020.5
20260831074321 71 323 1.0 2.0 0.00 0.02 0.00 76 1020.4
20260831074217 71 324 2.0 3.0 0.00 0.02 0.00 76 1020.6
20260831074129 71 324 1.0 2.0 0.00 0.02 0.00 76 1020.5
20260831074024 71 324 1.0 2.0 0.00 0.02 0.00 76 1020.5
20260831073940 71 324 1.0 1.0 0.00 0.02 0.00 76 1020.5
20260831073816 71 324 1.0 2.0 0.00 0.02 0.00 76 1020.5
20260831073747 71 324 1.0 2.0 0.00 0.02 0.00 76 1020.5
20260831073643 71 324 2.0 2.0 0.00 0.02 0.00 76 1020.4
20260831073518 71 328 2.0 2.0 0.00 0.02 0.00 76 1020.6
20260831073430 71 348 1.0 2.0 0.00 0.02 0.00 76 1020.6
20260831073326 71 297 1.0 4.0 0.00 0.02 0.00 76 1020.5
20260831073221 71 302 1.0 1.0 0.00 0.02 0.00 76 1020.5
20260831073117 71 302 1.0 2.0 0.00 0.02 0.00 76 1020.5
20260831073029 71 305 0.0 1.0 0.00 0.02 0.00 76 1020.5
20260831072924 71 304 1.0 2.0 0.00 0.02 0.00 76 1020.6
20260831072839 71 302 1.0 1.0 0.00 0.02 0.00 76 1020.4
20260831072715 71 309 1.0 2.0 0.00 0.02 0.00 76 1020.6
20260831072627 71 299 1.0 2.0 0.00 0.02 0.00 76 1020.5
20260831072522 71 291 0.0 1.0 0.00 0.02 0.00 76 1020.6
20260831072438 71 291 1.0 3.0 0.00 0.02 0.00 77 1020.6
20260831072329 71 302 2.0 3.0 0.00 0.02 0.00 77 1020.5
20260831072225 71 295 2.0 3.0 0.00 0.02 0.00 77 1020.5
20260831072120 71 284 0.0 1.0 0.00 0.02 0.00 76 1020.5
20260831072016 71 283 1.0 1.0 0.00 0.02 0.00 76 1020.5
20260831071928 71 0.0 0.0 0.00 0.02 0.00 77 1020.6
20260831071823 71 286 1.0 1.0 0.00 0.02 0.00 77 1020.5
20260831071719 71 284 0.0 1.0 0.00 0.02 0.00 77 1020.4
20260831071650 71 284 1.0 2.0 0.00 0.02 0.00 76 1020.6
20260831071526 71 283 1.0 2.0 0.00 0.02 0.00 76 1020.7
20260831071442 71 281 1.0 2.0 0.00 0.02 0.00 76 1020.6
20260831071337 71 327 0.0 1.0 0.00 0.02 0.00 77 1020.6
20260831071229 71 327 1.0 3.0 0.00 0.02 0.00 77 1020.5
20260831071124 71 326 1.0 1.0 0.00 0.02 0.00 77 1020.5
20260831071040 71 326 1.0 2.0 0.00 0.02 0.00 77 1020.5
20260831070916 71 327 0.0 1.0 0.00 0.02 0.00 77 1020.7
20260831070847 71 327 0.0 1.0 0.00 0.02 0.00 77 1020.5
20260831070722 71 329 1.0 3.0 0.00 0.02 0.00 77 1020.6
20260831070618 71 297 0.0 1.0 0.00 0.02 0.00 77 1020.7
20260831070530 71 296 0.0 1.0 0.00 0.02 0.00 77 1020.6
20260831070425 71 296 1.0 1.0 0.00 0.02 0.00 77 1020.6
20260831070321 71 296 1.0 2.0 0.00 0.02 0.00 77 1020.7
20260831070217 71 307 2.0 3.0 0.00 0.02 0.00 77 1020.6
20260831070128 71 345 0.0 1.0 0.00 0.02 0.00 77 1020.6
20260831070024 71 346 1.0 2.0 0.00 0.02 0.00 77 1020.6
20260831065939 71 345 1.0 3.0 0.00 0.02 0.00 77 1020.7
20260831065831 71 0.0 0.0 0.00 0.02 0.00 77 1020.6
20260831065726 71 299 0.0 1.0 0.00 0.02 0.00 77 1020.6
20260831065622 71 0.0 0.0 0.00 0.02 0.00 77 1020.7
20260831065517 71 0.0 0.0 0.00 0.02 0.00 77 1020.7
20260831065429 71 299 1.0 1.0 0.00 0.02 0.00 77 1020.7
20260831065344 71 299 1.0 1.0 0.00 0.02 0.00 77 1020.8
20260831065220 71 299 0.0 1.0 0.00 0.02 0.00 77 1020.8
20260831065116 71 304 1.0 2.0 0.00 0.02 0.00 77 1020.8
20260831065027 71 0.0 0.0 0.00 0.02 0.00 78 1020.7
20260831064923 71 0.0 0.0 0.00 0.02 0.00 78 1020.6
20260831064838 71 0.0 0.0 0.00 0.02 0.00 78 1020.6
20260831064730 71 315 0.0 1.0 0.00 0.02 0.00 77 1020.6
20260831064625 71 315 0.0 1.0 0.00 0.02 0.00 77 1020.6
20260831064521 71 315 0.0 1.0 0.00 0.02 0.00 77 1020.9
20260831064417 71 315 0.0 1.0 0.00 0.02 0.00 77 1020.6
20260831064328 71 311 2.0 3.0 0.00 0.02 0.00 77 1020.6
20260831064224 71 307 2.0 2.0 0.00 0.02 0.00 77 1020.4
20260831064120 71 307 2.0 2.0 0.00 0.02 0.00 77 1020.6
20260831064035 71 293 2.0 3.0 0.00 0.02 0.00 78 1020.6
20260831064006 71 279 1.0 2.0 0.00 0.02 0.00 78 1020.5
20260831063822 71 279 1.0 2.0 0.00 0.02 0.00 78 1020.4
20260831063718 71 279 1.0 1.0 0.00 0.02 0.00 78 1020.6
20260831063629 71 279 1.0 2.0 0.00 0.02 0.00 78 1020.5
20260831063545 71 278 1.0 2.0 0.00 0.02 0.00 78 1020.5
20260831063441 71 278 0.0 1.0 0.00 0.02 0.00 79 1020.7
20260831063316 71 278 0.0 1.0 0.00 0.02 0.00 79 1020.5
20260831063228 71 278 0.0 1.0 0.00 0.02 0.00 78 1020.5
20260831063123 71 281 1.0 2.0 0.00 0.02 0.00 78 1020.6
20260831063019 71 296 0.0 1.0 0.00 0.02 0.00 78 1020.6
20260831062931 71 296 1.0 2.0 0.00 0.02 0.00 77 1020.8
20260831062826 71 297 1.0 2.0 0.00 0.02 0.00 78 1020.8
20260831062722 71 296 0.0 1.0 0.00 0.02 0.00 78 1020.8
20260831062637 71 296 0.0 1.0 0.00 0.02 0.00 78 1020.9
20260831062529 71 296 0.0 2.0 0.00 0.02 0.00 78 1020.8
20260831062424 71 296 0.0 1.0 0.00 0.02 0.00 78 1020.5
20260831062320 71 297 0.0 1.0 0.00 0.02 0.00 78 1020.7
20260831062216 71 296 0.0 1.0 0.00 0.02 0.00 78 1021.0
20260831062127 71 296 1.0 1.0 0.00 0.02 0.00 78 1020.7
20260831062022 71 290 1.0 2.0 0.00 0.02 0.00 79 1020.7
20260831061917 71 251 0.0 1.0 0.00 0.02 0.00 78 1020.9
20260831061829 71 251 0.0 1.0 0.00 0.02 0.00 78 1020.7
20260831061725 71 250 0.0 1.0 0.00 0.02 0.00 78 1020.8
20260831061620 71 250 0.0 1.0 0.00 0.02 0.00 78 1020.8
20260831061516 71 250 0.0 1.0 0.00 0.02 0.00 79 1020.8
20260831061447 71 277 2.0 4.0 0.00 0.02 0.00 80 1020.9
20260831061323 71 294 2.0 4.0 0.00 0.02 0.00 81 1020.9
20260831061219 71 284 0.0 1.0 0.00 0.02 0.00 81 1021.0
20260831061130 71 283 1.0 2.0 0.00 0.02 0.00 81 1020.9
20260831061026 71 267 2.0 2.0 0.00 0.02 0.00 81 1021.0
20260831060922 71 263 1.0 2.0 0.00 0.02 0.00 82 1021.1
20260831060817 71 264 1.0 2.0 0.00 0.02 0.00 82 1021.0
20260831060728 71 263 1.0 2.0 0.00 0.02 0.00 82 1021.0
20260831060623 71 0.0 0.0 0.00 0.02 0.00 82 1020.9
20260831060519 71 263 0.0 1.0 0.00 0.02 0.00 82 1020.9
20260831060451 71 263 0.0 1.0 0.00 0.02 0.00 83 1021.0
20260831060326 71 263 1.0 2.0 0.00 0.02 0.00 83 1021.0
20260831060222 71 253 0.0 1.0 0.00 0.02 0.00 84 1020.9
20260831060118 71 253 1.0 1.0 0.00 0.02 0.00 84 1020.9
20260831060029 71 254 0.0 1.0 0.00 0.02 0.00 84 1021.1
20260831055925 71 254 1.0 1.0 0.00 0.02 0.00 84 1021.1
20260831055821 71 254 1.0 1.0 0.00 0.02 0.00 84 1021.0
20260831055736 70 254 1.0 1.0 0.00 0.02 0.00 84 1021.0
20260831055628 70 254 0.0 1.0 0.00 0.02 0.00 84 1020.8
20260831055523 71 0.0 0.0 0.00 0.02 0.00 83 1020.7
20260831055419 71 0.0 0.0 0.00 0.02 0.00 84 1021.0
20260831055331 71 0.0 0.0 0.00 0.02 0.00 84 1020.9
20260831055226 71 0.0 0.0 0.00 0.02 0.00 84 1020.8
20260831055122 71 0.0 0.0 0.00 0.02 0.00 85 1020.9
20260831055018 71 0.0 0.0 0.00 0.02 0.00 85 1020.8
20260831054929 71 253 0.0 1.0 0.00 0.02 0.00 84 1020.8
20260831054824 71 0.0 0.0 0.00 0.02 0.00 84 1020.7
20260831054720 70 0.0 0.0 0.00 0.02 0.00 84 1020.7
20260831054616 70 253 0.0 1.0 0.00 0.02 0.00 84 1020.8
20260831054527 70 253 0.0 1.0 0.00 0.02 0.00 84 1020.9
20260831054423 70 253 0.0 1.0 0.00 0.02 0.00 84 1021.1
20260831054319 70 0.0 0.0 0.00 0.02 0.00 83 1021.1
20260831054230 70 0.0 0.0 0.00 0.02 0.00 83 1021.0
20260831054126 71 253 0.0 1.0 0.00 0.02 0.00 83 1020.9
20260831054041 71 253 0.0 1.0 0.00 0.02 0.00 83 1020.9
20260831053917 71 0.0 0.0 0.00 0.02 0.00 83 1021.0
20260831053829 70 253 0.0 1.0 0.00 0.02 0.00 83 1020.8
20260831053724 71 253 0.0 1.0 0.00 0.02 0.00 83 1020.7
20260831053620 71 0.0 0.0 0.00 0.02 0.00 82 1021.1
20260831053515 71 0.0 0.0 0.00 0.02 0.00 82 1021.1
20260831053426 71 0.0 0.0 0.00 0.02 0.00 83 1020.8
20260831053322 71 0.0 0.0 0.00 0.02 0.00 83 1020.9
20260831053217 71 0.0 0.0 0.00 0.02 0.00 83 1020.9
20260831053149 71 0.0 0.0 0.00 0.02 0.00 83 1020.8
20260831053025 71 254 0.0 1.0 0.00 0.02 0.00 83 1020.8
20260831052920 71 254 1.0 2.0 0.00 0.02 0.00 82 1020.9
20260831052816 71 253 0.0 1.0 0.00 0.02 0.00 82 1020.9
20260831052727 71 0.0 0.0 0.00 0.02 0.00 82 1020.6
20260831052623 71 0.0 0.0 0.00 0.02 0.00 82 1020.7
20260831052530 71 253 0.0 1.0 0.00 0.02 0.00 83 1020.7
20260831052326 71 0.0 0.0 0.00 0.02 0.00 83 1020.6
20260831052241 71 0.0 0.0 0.00 0.02 0.00 83 1020.6
20260831052117 71 253 0.0 1.0 0.00 0.02 0.00 83 1020.6
20260831052028 71 253 1.0 1.0 0.00 0.02 0.00 83 1020.7
20260831052004 71 253 1.0 1.0 0.00 0.02 0.00 84 1020.8
20260831051819 71 253 1.0 1.0 0.00 0.02 0.00 84 1020.8
20260831051715 71 253 1.0 1.0 0.00 0.02 0.00 83 1020.8
20260831051627 71 253 0.0 1.0 0.00 0.02 0.00 83 1020.8
20260831051522 71 253 0.0 1.0 0.00 0.02 0.00 83 1020.8
20260831051418 71 253 0.0 1.0 0.00 0.02 0.00 84 1020.9
20260831051329 71 253 0.0 1.0 0.00 0.02 0.00 84 1020.7
20260831051225 71 253 0.0 1.0 0.00 0.02 0.00 83 1020.7
20260831051121 71 0.0 0.0 0.00 0.02 0.00 83 1021.0
20260831051016 71 253 0.0 1.0 0.00 0.02 0.00 82 1021.1
20260831050928 71 0.0 0.0 0.00 0.02 0.00 81 1020.9
20260831050823 71 0.0 0.0 0.00 0.02 0.00 81 1021.0
20260831050719 71 0.0 0.0 0.00 0.02 0.00 81 1021.1
20260831050631 71 0.0 0.0 0.00 0.02 0.00 81 1021.0
20260831050526 71 0.0 0.0 0.00 0.02 0.00 81 1021.0
20260831050422 72 0.0 0.0 0.00 0.02 0.00 80 1020.9
20260831050317 72 0.0 0.0 0.00 0.02 0.00 80 1020.9
20260831050229 72 0.0 0.0 0.00 0.02 0.00 80 1020.8
20260831050124 72 0.0 0.0 0.00 0.02 0.00 80 1021.1
20260831050020 72 0.0 0.0 0.00 0.02 0.00 80 1021.1
20260831045915 72 0.0 0.0 0.00 0.02 0.00 81 1021.1
20260831045827 72 0.0 0.0 0.00 0.02 0.00 81 1021.1
20260831045722 72 0.0 0.0 0.00 0.02 0.00 81 1020.9
20260831045618 72 0.0 0.0 0.00 0.02 0.00 80 1020.9
20260831045550 72 0.0 0.0 0.00 0.02 0.00 80 1020.9
20260831045425 72 0.0 0.0 0.00 0.02 0.00 80 1020.9
20260831045321 72 0.0 0.0 0.00 0.02 0.00 80 1020.9
20260831045216 72 0.0 0.0 0.00 0.02 0.00 80 1021.1
20260831045127 72 253 0.0 1.0 0.00 0.02 0.00 80 1021.1
20260831045043 72 253 0.0 1.0 0.00 0.02 0.00 81 1021.1
20260831044919 72 0.0 0.0 0.00 0.02 0.00 80 1021.2
20260831044911 72 253 0.0 1.0 0.00 0.02 0.00 80 1021.0
20260831044726 72 253 1.0 1.0 0.00 0.02 0.00 79 1021.0
20260831044622 72 253 0.0 1.0 0.00 0.02 0.00 79 1021.0
20260831044517 72 0.0 0.0 0.00 0.02 0.00 79 1021.0
20260831044429 72 0.0 0.0 0.00 0.02 0.00 79 1021.1
20260831044325 72 0.0 0.0 0.00 0.02 0.00 79 1021.0
20260831044220 72 0.0 0.0 0.00 0.02 0.00 79 1020.9
20260831044116 72 0.0 0.0 0.00 0.02 0.00 79 1021.0
20260831044027 72 0.0 0.0 0.00 0.02 0.00 79 1020.9
20260831043943 72 0.0 0.0 0.00 0.02 0.00 79 1020.9
20260831043839 72 0.0 0.0 0.00 0.02 0.00 79 1021.1
20260831043730 72 0.0 0.0 0.00 0.02 0.00 79 1021.0
20260831043626 72 0.0 0.0 0.00 0.02 0.00 80 1020.8
20260831043521 72 0.0 0.0 0.00 0.02 0.00 79 1021.0
20260831043417 72 0.0 0.0 0.00 0.02 0.00 80 1020.9
20260831043329 73 0.0 0.0 0.00 0.02 0.00 79 1020.9
20260831043224 73 0.0 0.0 0.00 0.02 0.00 79 1021.0
20260831043119 73 0.0 0.0 0.00 0.02 0.00 79 1021.0
20260831043051 73 0.0 0.0 0.00 0.02 0.00 80 1020.9
20260831042927 73 0.0 0.0 0.00 0.02 0.00 80 1020.9
20260831042822 73 0.0 0.0 0.00 0.02 0.00 80 1020.8
20260831042717 73 0.0 0.0 0.00 0.02 0.00 80 1020.8
20260831042649 73 0.0 0.0 0.00 0.02 0.00 80 1020.9
20260831042524 73 0.0 0.0 0.00 0.02 0.00 80 1021.0
20260831042500 73 253 0.0 1.0 0.00 0.02 0.00 80 1021.0
20260831042315 73 253 1.0 1.0 0.00 0.02 0.00 81 1021.1
20260831042227 73 253 1.0 1.0 0.00 0.02 0.00 81 1020.8
20260831042123 73 253 0.0 1.0 0.00 0.02 0.00 81 1020.8
20260831042018 73 253 1.0 1.0 0.00 0.02 0.00 81 1020.7
20260831041930 73 253 1.0 1.0 0.00 0.02 0.00 81 1021.0
20260831041826 73 253 1.0 1.0 0.00 0.02 0.00 81 1020.8
20260831041721 73 253 1.0 1.0 0.00 0.02 0.00 80 1020.8
20260831041636 73 253 0.0 1.0 0.00 0.02 0.00 79 1020.9
20260831041529 73 253 0.0 1.0 0.00 0.02 0.00 79 1020.8
20260831041424 73 0.0 0.0 0.00 0.02 0.00 79 1020.8
20260831041319 73 0.0 0.0 0.00 0.02 0.00 78 1020.9
20260831041231 73 0.0 0.0 0.00 0.02 0.00 78 1020.7
20260831041126 73 0.0 0.0 0.00 0.02 0.00 78 1020.6
20260831040829 73 0.0 0.0 0.00 0.02 0.00 78 1020.8
20260831040725 73 0.0 0.0 0.00 0.02 0.00 78 1020.7
20260831040621 73 0.0 0.0 0.00 0.02 0.00 78 1020.7
20260831040516 73 0.0 0.0 0.00 0.02 0.00 78 1020.8
20260831040428 73 0.0 0.0 0.00 0.02 0.00 79 1020.7
20260831040324 73 0.0 0.0 0.00 0.02 0.00 79 1020.8
20260831040219 73 253 0.0 1.0 0.00 0.02 0.00 79 1020.8
20260831040131 73 253 0.0 1.0 0.00 0.02 0.00 79 1020.8
20260831040027 73 0.0 0.0 0.00 0.02 0.02 79 1020.8
20260831035922 73 253 0.0 1.0 0.00 0.02 0.02 79 1020.7
20260831035817 73 0.0 0.0 0.00 0.02 0.02 79 1020.7
20260831035729 73 253 0.0 1.0 0.00 0.02 0.02 79 1020.9
20260831035625 73 253 1.0 1.0 0.00 0.02 0.02 79 1021.0
20260831035520 73 253 0.0 1.0 0.00 0.02 0.02 79 1020.8
20260831035416 73 253 1.0 1.0 0.00 0.02 0.02 79 1021.0
20260831035328 73 253 0.0 1.0 0.00 0.02 0.02 79 1020.7
20260831035223 73 253 1.0 1.0 0.00 0.02 0.02 79 1020.7
20260831035119 73 253 1.0 1.0 0.00 0.02 0.02 79 1020.7
20260831035030 73 253 0.0 1.0 0.00 0.02 0.02 79 1020.6
20260831034926 73 253 1.0 1.0 0.00 0.02 0.02 79 1020.7
20260831034822 73 250 1.0 2.0 0.00 0.02 0.02 78 1020.6
20260831034737 74 239 1.0 1.0 0.00 0.02 0.02 79 1020.7
20260831034629 74 239 0.0 1.0 0.00 0.02 0.02 79 1020.6
20260831034525 74 239 1.0 1.0 0.00 0.02 0.02 79 1020.5
20260831034420 74 239 0.0 1.0 0.00 0.02 0.02 79 1020.5
20260831034316 74 239 1.0 1.0 0.00 0.02 0.02 79 1020.7
20260831034227 74 239 1.0 2.0 0.00 0.02 0.02 79 1020.6
20260831034122 74 239 1.0 2.0 0.00 0.02 0.02 78 1020.6
20260831034038 74 239 1.0 2.0 0.00 0.02 0.02 79 1020.7
20260831033929 74 239 0.0 1.0 0.00 0.02 0.02 79 1020.6
20260831033825 74 239 0.0 1.0 0.00 0.02 0.02 79 1020.7
20260831033721 74 239 1.0 1.0 0.00 0.02 0.02 78 1020.7
20260831033616 74 238 2.0 3.0 0.00 0.02 0.02 79 1020.7
20260831033527 74 311 1.0 1.0 0.00 0.02 0.02 79 1020.7
20260831033423 74 311 1.0 1.0 0.00 0.02 0.02 79 1020.7
20260831033318 74 310 1.0 2.0 0.00 0.02 0.02 79 1020.7
20260831033230 74 303 1.0 3.0 0.00 0.02 0.02 79 1020.7
20260831033126 74 251 1.0 2.0 0.00 0.02 0.02 79 1020.6
20260831033021 74 240 0.0 1.0 0.00 0.02 0.02 79 1020.7
20260831032917 74 239 2.0 3.0 0.00 0.02 0.02 79 1020.6
20260831032829 74 247 2.0 3.0 0.00 0.02 0.02 79 1020.6
20260831032724 74 249 2.0 3.0 0.00 0.02 0.02 80 1020.6
20260831032620 74 249 2.0 2.0 0.00 0.02 0.02 80 1020.6
20260831032515 74 264 1.0 2.0 0.00 0.02 0.02 80 1020.7
20260831032427 74 266 2.0 2.0 0.00 0.02 0.02 80 1020.6
20260831032322 74 282 2.0 3.0 0.00 0.02 0.02 81 1020.6
20260831032238 74 309 1.0 1.0 0.00 0.02 0.02 81 1020.7
20260831032130 74 310 1.0 1.0 0.00 0.02 0.02 81 1020.6
20260831032025 74 314 1.0 2.0 0.00 0.02 0.02 82 1020.6
20260831031920 74 324 1.0 2.0 0.00 0.02 0.02 82 1020.5
20260831031816 74 324 1.0 2.0 0.00 0.02 0.02 82 1020.8
20260831031728 74 325 1.0 1.0 0.00 0.02 0.02 82 1020.6
20260831031643 74 325 1.0 1.0 0.00 0.02 0.02 82 1020.4
20260831031519 74 325 1.0 2.0 0.00 0.02 0.02 82 1020.3
20260831031431 74 326 0.0 1.0 0.00 0.02 0.02 82 1020.5
20260831031326 74 326 1.0 1.0 0.00 0.02 0.02 82 1020.4
20260831031221 74 326 1.0 1.0 0.00 0.02 0.02 82 1020.4
20260831031136 74 326 1.0 1.0 0.00 0.02 0.02 83 1020.3
20260831031028 74 326 1.0 1.0 0.00 0.02 0.02 83 1020.5
20260831030923 74 326 1.0 1.0 0.00 0.02 0.02 83 1020.5
20260831030819 74 326 1.0 2.0 0.00 0.02 0.02 83 1020.5
20260831030715 74 326 1.0 2.0 0.00 0.02 0.02 83 1020.2
20260831030627 74 326 1.0 1.0 0.00 0.02 0.02 82 1020.2
20260831030522 74 0.0 0.0 0.00 0.02 0.02 81 1020.2
20260831030418 74 0.0 0.0 0.00 0.02 0.02 81 1020.3
20260831030410 74 0.0 0.0 0.00 0.02 0.02 81 1020.2
20260831030245 74 0.0 0.0 0.00 0.02 0.02 81 1020.2
20260831030121 74 0.0 0.0 0.00 0.02 0.02 81 1020.2
20260831030016 74 0.0 0.0 0.00 0.02 0.02 82 1020.5
20260831025928 74 326 0.0 1.0 0.00 0.02 0.02 82 1020.1
20260831025824 74 326 1.0 1.0 0.00 0.02 0.02 83 1020.3
20260831025719 74 326 1.0 2.0 0.00 0.02 0.02 83 1020.5
20260831025631 74 0.0 0.0 0.00 0.02 0.02 82 1020.3
20260831025526 74 327 1.0 1.0 0.00 0.02 0.02 83 1020.2
20260831025442 74 328 1.0 1.0 0.00 0.02 0.02 82 1020.3
20260831025318 75 328 1.0 2.0 0.00 0.02 0.02 82 1020.2
20260831025229 75 325 1.0 2.0 0.00 0.02 0.02 82 1020.1
20260831025125 75 0.0 0.0 0.00 0.02 0.02 82 1020.3
20260831025021 75 313 0.0 1.0 0.00 0.02 0.02 83 1020.4
20260831024916 75 313 1.0 2.0 0.00 0.02 0.02 83 1020.3
20260831024828 75 315 2.0 2.0 0.00 0.02 0.02 84 1020.2
20260831024724 75 312 1.0 1.0 0.00 0.02 0.02 84 1020.3
20260831024619 75 318 2.0 3.0 0.00 0.02 0.02 84 1020.3
20260831024531 75 309 2.0 3.0 0.00 0.02 0.02 84 1020.5
20260831024427 75 300 2.0 2.0 0.00 0.02 0.02 83 1020.3
20260831024322 75 299 0.0 1.0 0.00 0.02 0.02 81 1020.4
20260831024218 75 0.0 0.0 0.00 0.02 0.02 81 1020.4
20260831024149 75 0.0 0.0 0.00 0.02 0.02 81 1020.5
20260831024025 75 0.0 0.0 0.00 0.02 0.02 82 1020.7
20260831023921 75 0.0 0.0 0.00 0.02 0.02 82 1020.6
20260831023816 75 299 0.0 1.0 0.00 0.02 0.02 83 1020.3
20260831023728 75 299 1.0 1.0 0.00 0.02 0.02 83 1020.5
20260831023623 75 299 1.0 2.0 0.00 0.02 0.02 83 1020.7
20260831023519 75 298 1.0 1.0 0.00 0.02 0.02 83 1020.8
20260831023431 75 299 1.0 2.0 0.00 0.02 0.02 84 1020.8
20260831023347 75 299 2.0 4.0 0.00 0.02 0.02 84 1020.6
20260831023222 75 282 1.0 2.0 0.00 0.02 0.02 84 1020.8
20260831023118 75 309 2.0 3.0 0.00 0.02 0.02 84 1020.8
20260831023029 75 316 1.0 2.0 0.01 0.02 0.02 84 1020.6
20260831022925 75 330 2.0 3.0 0.01 0.02 0.02 85 1020.6
20260831022821 75 308 3.0 4.0 0.01 0.02 0.02 85 1020.9
20260831022716 75 308 3.0 7.0 0.01 0.02 0.02 85 1021.0
20260831022628 75 319 0.0 1.0 0.01 0.02 0.02 85 1020.8
20260831022524 76 318 2.0 3.0 0.01 0.02 0.02 85 1020.7
20260831022419 76 305 2.0 3.0 0.01 0.02 0.02 86 1021.0
20260831022331 76 310 2.0 3.0 0.01 0.02 0.02 85 1020.8
20260831022227 76 323 2.0 3.0 0.01 0.02 0.02 86 1020.8
20260831022122 76 313 2.0 3.0 0.01 0.02 0.02 86 1020.9
20260831022058 76 283 1.0 2.0 0.01 0.02 0.02 86 1020.8
20260831021929 76 302 1.0 2.0 0.01 0.02 0.02 86 1021.0
20260831021825 76 309 1.0 3.0 0.01 0.02 0.02 86 1021.0
20260831021721 76 307 1.0 2.0 0.01 0.02 0.02 86 1021.1
20260831021616 76 307 1.0 2.0 0.01 0.02 0.02 86 1021.1
20260831021528 76 310 1.0 2.0 0.01 0.02 0.02 87 1021.0
20260831021424 76 310 0.0 1.0 0.01 0.02 0.02 86 1021.0
20260831021359 76 310 0.0 1.0 0.01 0.02 0.02 86 1021.1
20260831021231 76 311 0.0 2.0 0.01 0.02 0.02 86 1021.1
20260831021126 76 313 1.0 2.0 0.01 0.02 0.02 87 1021.0
20260831021022 76 293 2.0 3.0 0.01 0.02 0.02 86 1021.1
20260831020918 76 258 1.0 2.0 0.01 0.02 0.02 86 1021.1
20260831020829 76 258 1.0 2.0 0.01 0.02 0.02 84 1021.0
20260831020725 76 258 1.0 1.0 0.01 0.02 0.02 82 1021.1
20260831020621 76 258 0.0 1.0 0.01 0.02 0.02 82 1021.1
20260831020536 76 0.0 0.0 0.01 0.02 0.02 83 1021.0
20260831020428 76 258 0.0 1.0 0.01 0.02 0.02 82 1021.0
20260831020323 76 0.0 0.0 0.01 0.02 0.02 83 1021.0
20260831020219 76 0.0 0.0 0.01 0.02 0.02 84 1021.2
20260831020131 76 258 0.0 1.0 0.01 0.02 0.02 83 1021.0
20260831020046 76 258 0.0 1.0 0.01 0.02 0.02 83 1021.2
20260831015922 76 0.0 0.0 0.01 0.02 0.02 83 1020.9
20260831015817 76 258 0.0 1.0 0.01 0.02 0.02 82 1020.8
20260831015729 76 258 1.0 1.0 0.01 0.02 0.02 83 1021.0
20260831015645 76 247 1.0 2.0 0.01 0.02 0.02 84 1020.9
20260831015521 76 242 2.0 2.0 0.01 0.02 0.02 84 1020.9
20260831015416 76 238 2.0 2.0 0.01 0.02 0.02 81 1021.0
20260831015328 76 237 0.0 1.0 0.01 0.02 0.02 81 1021.0
20260831015223 76 0.0 0.0 0.01 0.02 0.02 82 1020.9
20260831015119 76 0.0 0.0 0.01 0.02 0.02 81 1021.0
20260831015030 76 236 0.0 1.0 0.01 0.02 0.02 80 1020.7
20260831014942 76 0.0 0.0 0.01 0.02 0.02 79 1020.8
20260831014717 76 0.0 0.0 0.00 0.01 0.01 79 1021.0
20260831014628 76 237 0.0 1.0 0.00 0.01 0.01 79 1020.8
20260831014523 76 237 1.0 1.0 0.00 0.01 0.01 79 1020.8
20260831014419 76 237 0.0 1.0 0.00 0.01 0.01 78 1020.9
20260831014330 76 0.0 0.0 0.00 0.01 0.01 77 1021.0
20260831014226 76 0.0 0.0 0.00 0.01 0.01 77 1020.9
20260831014122 76 0.0 0.0 0.00 0.01 0.01 77 1020.9
20260831014017 76 0.0 0.0 0.00 0.01 0.01 77 1021.0
20260831013929 76 0.0 0.0 0.00 0.01 0.01 77 1020.8
20260831013825 76 0.0 0.0 0.00 0.01 0.01 77 1020.8
20260831013720 76 0.0 0.0 0.00 0.01 0.01 78 1020.8
20260831013636 76 0.0 0.0 0.00 0.01 0.01 78 1020.9
20260831013527 76 0.0 0.0 0.00 0.01 0.01 78 1021.0
20260831013422 76 0.0 0.0 0.00 0.01 0.01 78 1021.0
20260831013318 76 0.0 0.0 0.00 0.01 0.01 78 1020.8
20260831013230 76 0.0 0.0 0.00 0.01 0.01 79 1021.0
20260831013125 76 0.0 0.0 0.00 0.01 0.01 78 1020.8
20260831013101 76 0.0 0.0 0.00 0.01 0.01 77 1020.9
20260831012916 76 0.0 0.0 0.00 0.01 0.01 77 1020.7
20260831012828 76 0.0 0.0 0.00 0.01 0.01 76 1020.9
20260831012724 76 0.0 0.0 0.00 0.01 0.01 76 1020.8
20260831012619 76 0.0 0.0 0.00 0.01 0.01 76 1020.9
20260831012531 76 0.0 0.0 0.00 0.01 0.01 76 1020.7
20260831012506 76 0.0 0.0 0.00 0.01 0.01 76 1020.9
20260831012322 76 0.0 0.0 0.00 0.01 0.01 76 1020.8
20260831012218 76 0.0 0.0 0.00 0.01 0.01 76 1020.7
20260831012129 76 0.0 0.0 0.00 0.01 0.01 76 1020.8
20260831012025 76 0.0 0.0 0.00 0.01 0.01 76 1020.7
20260831011920 76 0.0 0.0 0.00 0.01 0.01 76 1020.7
20260831011816 76 0.0 0.0 0.00 0.01 0.01 76 1020.7
20260831011728 76 0.0 0.0 0.00 0.01 0.01 76 1020.7
20260831011623 76 0.0 0.0 0.00 0.01 0.01 76 1020.8
20260831011519 77 0.0 0.0 0.00 0.01 0.01 75 1020.8
20260831011451 77 0.0 0.0 0.00 0.01 0.01 75 1020.6
20260831011326 77 0.0 0.0 0.00 0.01 0.01 75 1020.5
20260831011222 77 0.0 0.0 0.00 0.01 0.01 75 1020.8
20260831011117 77 0.0 0.0 0.00 0.01 0.01 76 1020.6
20260831011028 77 0.0 0.0 0.00 0.01 0.01 76 1020.5
20260831010924 77 0.0 0.0 0.00 0.01 0.01 76 1020.6
20260831010820 77 0.0 0.0 0.00 0.01 0.01 76 1020.7
20260831010735 77 0.0 0.0 0.00 0.01 0.01 76 1020.5
20260831010626 77 0.0 0.0 0.00 0.01 0.01 76 1020.5
20260831010521 77 0.0 0.0 0.00 0.01 0.01 77 1020.7
20260831010428 77 236 0.0 1.0 0.00 0.01 0.01 76 1020.5
20260831010328 77 0.0 0.0 0.00 0.01 0.01 76 1020.4
20260831010223 77 0.0 0.0 0.00 0.01 0.01 76 1020.4
20260831010119 77 0.0 0.0 0.00 0.01 0.01 76 1020.4
20260831010031 77 0.0 0.0 0.00 0.01 0.01 76 1020.5
20260831005927 77 0.0 0.0 0.00 0.01 0.01 75 1020.3
20260831005822 77 0.0 0.0 0.00 0.01 0.01 75 1020.4
20260831005717 77 0.0 0.0 0.00 0.01 0.01 75 1020.5
20260831005629 77 0.0 0.0 0.00 0.01 0.01 75 1020.4
20260831005525 77 0.0 0.0 0.00 0.01 0.01 75 1020.3
20260831005440 77 0.0 0.0 0.00 0.01 0.01 75 1020.4
20260831005316 77 0.0 0.0 0.00 0.01 0.01 75 1020.5
20260831005227 77 0.0 0.0 0.00 0.01 0.01 75 1020.3
20260831005123 77 0.0 0.0 0.00 0.01 0.01 75 1020.3
20260831005039 77 0.0 0.0 0.00 0.01 0.01 75 1020.3
20260831004930 77 0.0 0.0 0.00 0.01 0.01 75 1020.2
20260831004826 77 0.0 0.0 0.00 0.01 0.01 75 1020.3
20260831004721 77 0.0 0.0 0.00 0.01 0.01 75 1020.3
20260831004617 77 0.0 0.0 0.00 0.01 0.01 75 1020.3
20260831004529 77 0.0 0.0 0.00 0.01 0.01 75 1020.1
20260831004424 77 0.0 0.0 0.00 0.01 0.01 75 1020.2
20260831004320 77 0.0 0.0 0.00 0.01 0.01 75 1020.3
20260831004215 77 0.0 0.0 0.00 0.01 0.01 75 1020.3
20260831004127 77 0.0 0.0 0.00 0.01 0.01 74 1020.2
20260831004023 77 0.0 0.0 0.00 0.01 0.01 74 1020.2
20260831003918 77 0.0 0.0 0.00 0.01 0.01 74 1020.2
20260831003830 77 0.0 0.0 0.00 0.01 0.01 74 1020.2
20260831003725 77 0.0 0.0 0.00 0.01 0.01 74 1020.2
20260831003620 77 0.0 0.0 0.00 0.01 0.01 74 1020.2
20260831003516 77 0.0 0.0 0.00 0.01 0.01 74 1020.2
20260831003428 77 0.0 0.0 0.00 0.01 0.01 75 1020.1
20260831003323 77 0.0 0.0 0.00 0.01 0.01 75 1020.0
20260831003219 77 0.0 0.0 0.00 0.01 0.01 76 1020.0
20260831003130 77 0.0 0.0 0.00 0.01 0.01 75 1020.1
20260831003026 77 0.0 0.0 0.00 0.01 0.01 74 1020.0
20260831002922 77 0.0 0.0 0.00 0.01 0.01 74 1020.1
20260831002817 77 0.0 0.0 0.00 0.01 0.01 74 1020.1
20260831002729 77 0.0 0.0 0.00 0.01 0.01 74 1019.9
20260831002644 77 0.0 0.0 0.00 0.01 0.01 74 1019.9
20260831002520 77 0.0 0.0 0.00 0.01 0.01 74 1019.9
20260831002416 78 0.0 0.0 0.00 0.01 0.01 74 1020.1
20260831002327 78 0.0 0.0 0.00 0.01 0.01 74 1020.1
20260831002223 78 0.0 0.0 0.00 0.01 0.01 74 1020.0
20260831002119 78 0.0 0.0 0.00 0.01 0.01 74 1020.0
20260831002030 78 0.0 0.0 0.00 0.01 0.01 74 1019.9
20260831001926 78 0.0 0.0 0.00 0.01 0.01 74 1020.1
20260831001822 78 0.0 0.0 0.00 0.01 0.01 74 1020.1
20260831001717 78 0.0 0.0 0.00 0.01 0.01 74 1020.4
20260831001629 78 0.0 0.0 0.00 0.01 0.01 74 1020.1
20260831001525 78 0.0 0.0 0.00 0.01 0.01 74 1020.0
20260831001420 78 0.0 0.0 0.00 0.01 0.01 74 1019.9
20260831001316 78 0.0 0.0 0.00 0.01 0.01 74 1020.1
20260831001227 78 236 0.0 1.0 0.00 0.01 0.01 74 1020.0
20260831001203 78 0.0 0.0 0.00 0.01 0.01 74 1020.0
20260831001018 78 0.0 0.0 0.00 0.01 0.01 74 1020.0
20260831000930 78 0.0 0.0 0.00 0.01 0.01 74 1019.9
20260831000825 78 0.0 0.0 0.00 0.01 0.01 74 1019.9
20260831000721 78 0.0 0.0 0.00 0.01 0.01 74 1019.9
20260831000617 78 0.0 0.0 0.00 0.01 0.01 73 1019.9
20260831000528 78 0.0 0.0 0.00 0.01 0.01 73 1019.9
20260831000425 78 0.0 0.0 0.00 0.01 0.01 73 1020.0
20260831000320 78 0.0 0.0 0.00 0.01 0.01 73 1019.9
20260831000215 78 0.0 0.0 0.00 0.01 0.01 73 1020.0
20260831000127 78 0.0 0.0 0.00 0.01 0.01 73 1019.9
20260831000022 78 0.0 0.0 0.00 0.01 0.01 73 1019.9
20260830235918 78 0.0 0.0 0.00 0.01 0.01 73 1019.9
20260830235829 78 0.0 0.0 0.00 0.01 0.01 73 1019.8
20260830235745 78 0.0 0.0 0.00 0.01 0.01 73 1019.9
20260830235621 78 0.0 0.0 0.00 0.01 0.01 73 1020.0
20260830235516 78 0.0 0.0 0.00 0.01 0.01 73 1019.9
20260830235428 78 0.0 0.0 0.00 0.01 0.01 73 1019.8
20260830235324 78 0.0 0.0 0.00 0.01 0.01 73 1020.0
20260830235219 78 0.0 0.0 0.00 0.01 0.01 73 1020.0
20260830235130 78 0.0 0.0 0.00 0.01 0.01 73 1019.8
20260830235026 78 0.0 0.0 0.00 0.01 0.01 73 1019.5
20260830234941 78 0.0 0.0 0.00 0.01 0.01 74 1019.7
20260830234817 78 236 0.0 1.0 0.00 0.01 0.01 74 1019.9
20260830234729 78 236 0.0 1.0 0.00 0.01 0.01 73 1019.7
20260830234644 78 0.0 0.0 0.00 0.01 0.01 73 1019.7
20260830234519 78 0.0 0.0 0.00 0.01 0.01 73 1019.9
20260830234431 78 0.0 0.0 0.00 0.01 0.01 73 1019.8
20260830234326 78 0.0 0.0 0.00 0.01 0.01 74 1019.6
20260830234242 79 236 0.0 1.0 0.00 0.01 0.01 73 1019.6
20260830234117 79 0.0 0.0 0.00 0.01 0.01 73 1019.5
20260830234029 79 236 0.0 1.0 0.00 0.01 0.01 72 1019.5
20260830233925 79 0.0 0.0 0.00 0.01 0.01 71 1019.5
20260830233900 79 0.0 0.0 0.00 0.01 0.01 71 1019.8
20260830233716 79 0.0 0.0 0.00 0.01 0.01 71 1019.6
20260830233628 79 0.0 0.0 0.00 0.01 0.01 71 1019.6
20260830233523 79 0.0 0.0 0.00 0.01 0.01 71 1019.7
20260830233419 79 0.0 0.0 0.00 0.01 0.01 71 1019.7
20260830233331 79 0.0 0.0 0.00 0.01 0.01 71 1019.7
20260830233226 79 0.0 0.0 0.00 0.01 0.01 71 1019.7
20260830233142 79 0.0 0.0 0.00 0.01 0.01 71 1019.7
20260830233017 79 0.0 0.0 0.00 0.01 0.01 71 1019.7
20260830232929 79 0.0 0.0 0.00 0.01 0.01 71 1019.7
20260830232844 79 0.0 0.0 0.00 0.01 0.01 71 1019.6
20260830232720 79 0.0 0.0 0.00 0.01 0.01 71 1019.6
20260830232615 79 0.0 0.0 0.00 0.01 0.01 71 1019.8
20260830232527 79 0.0 0.0 0.00 0.01 0.01 72 1019.6
20260830232423 79 0.0 0.0 0.00 0.01 0.01 72 1019.6
20260830232318 79 0.0 0.0 0.00 0.01 0.01 72 1019.7
20260830232230 79 0.0 0.0 0.00 0.01 0.01 72 1019.7
20260830232125 79 0.0 0.0 0.00 0.01 0.01 72 1019.6
20260830232021 79 0.0 0.0 0.00 0.01 0.01 72 1019.7
20260830231916 80 0.0 0.0 0.00 0.01 0.01 72 1019.6
20260830231828 80 0.0 0.0 0.00 0.01 0.01 72 1019.7
20260830231724 80 0.0 0.0 0.00 0.01 0.01 71 1019.7
20260830231619 80 0.0 0.0 0.00 0.01 0.01 71 1019.7
20260830231531 80 0.0 0.0 0.00 0.01 0.01 70 1019.8
20260830231426 80 0.0 0.0 0.00 0.01 0.01 70 1019.6
20260830231322 80 0.0 0.0 0.00 0.01 0.01 70 1019.7
20260830231217 80 0.0 0.0 0.00 0.01 0.01 70 1019.7
20260830231129 80 0.0 0.0 0.00 0.01 0.01 70 1019.6
20260830231025 80 0.0 0.0 0.00 0.01 0.01 70 1019.7
20260830230920 80 0.0 0.0 0.00 0.01 0.01 70 1019.7
20260830230816 80 0.0 0.0 0.00 0.01 0.01 71 1019.8
20260830230728 80 0.0 0.0 0.00 0.01 0.01 71 1019.8
20260830230703 80 0.0 0.0 0.00 0.01 0.01 71 1019.7
20260830230519 80 0.0 0.0 0.00 0.01 0.01 70 1019.7
20260830230430 80 0.0 0.0 0.00 0.01 0.01 70 1019.7
20260830230328 80 0.0 0.0 0.00 0.01 0.01 70 1019.8
20260830230222 80 0.0 0.0 0.00 0.01 0.01 70 1019.8
20260830230117 80 0.0 0.0 0.00 0.01 0.01 70 1019.8
20260830230029 80 0.0 0.0 0.00 0.01 0.01 70 1019.8
20260830225925 80 0.0 0.0 0.00 0.01 0.01 70 1019.7
20260830225820 80 0.0 0.0 0.00 0.01 0.01 70 1019.7
20260830225716 80 0.0 0.0 0.00 0.01 0.01 70 1019.8
20260830225647 80 0.0 0.0 0.00 0.01 0.01 70 1019.8
20260830225523 80 0.0 0.0 0.00 0.01 0.01 70 1019.7
20260830225419 80 0.0 0.0 0.00 0.01 0.01 70 1019.7
20260830225330 80 0.0 0.0 0.00 0.01 0.01 72 1019.9
20260830225226 81 0.0 0.0 0.00 0.01 0.01 71 1019.8
20260830225122 81 0.0 0.0 0.00 0.01 0.01 69 1019.7
20260830225017 81 0.0 0.0 0.00 0.01 0.01 69 1019.5
20260830224949 81 0.0 0.0 0.00 0.01 0.01 70 1019.6
20260830224844 81 0.0 0.0 0.00 0.01 0.01 70 1019.4
20260830224720 81 0.0 0.0 0.00 0.01 0.01 69 1019.6
20260830224616 81 0.0 0.0 0.00 0.01 0.01 69 1019.6
20260830224527 81 236 0.0 1.0 0.00 0.01 0.01 69 1019.7
20260830224443 81 236 0.0 1.0 0.00 0.01 0.01 70 1019.6
20260830224319 81 237 0.0 1.0 0.00 0.01 0.01 69 1019.5
20260830224230 81 0.0 0.0 0.00 0.01 0.01 69 1019.6
20260830224125 81 236 0.0 1.0 0.00 0.01 0.01 69 1019.8
20260830224021 81 0.0 0.0 0.00 0.01 0.01 69 1019.7
20260830223916 81 0.0 0.0 0.00 0.01 0.01 69 1019.7
20260830223848 81 236 1.0 3.0 0.00 0.01 0.01 70 1019.8
20260830223724 81 244 1.0 2.0 0.00 0.01 0.01 69 1019.8
20260830223619 81 247 1.0 2.0 0.00 0.01 0.01 69 1019.8
20260830223515 81 247 0.0 1.0 0.00 0.01 0.01 69 1019.7
20260830223427 81 0.0 0.0 0.00 0.01 0.01 69 1019.8
20260830223342 81 247 0.0 1.0 0.00 0.01 0.01 69 1019.8
20260830223218 81 0.0 0.0 0.00 0.01 0.01 69 1019.6
20260830223130 81 247 1.0 2.0 0.00 0.01 0.01 69 1019.8
20260830223025 82 247 1.0 1.0 0.00 0.01 0.01 69 1019.9
20260830222920 82 248 1.0 2.0 0.00 0.01 0.01 69 1019.9
20260830222816 82 248 1.0 2.0 0.00 0.01 0.01 69 1019.9
20260830222728 82 247 1.0 1.0 0.00 0.01 0.01 69 1019.9
20260830222643 82 248 0.0 1.0 0.00 0.01 0.01 68 1019.8
20260830222519 82 0.0 0.0 0.00 0.01 0.01 68 1019.8
20260830222431 82 247 0.0 1.0 0.00 0.01 0.01 68 1019.7
20260830222326 82 247 0.0 1.0 0.00 0.01 0.01 68 1019.8
20260830222222 82 0.0 0.0 0.00 0.01 0.01 68 1019.7
20260830222117 82 0.0 0.0 0.00 0.01 0.01 68 1019.6
20260830222029 82 0.0 0.0 0.00 0.01 0.01 68 1019.8
20260830221945 82 0.0 0.0 0.00 0.01 0.01 68 1019.8
20260830221820 82 0.0 0.0 0.00 0.01 0.01 68 1019.7
20260830221716 82 247 1.0 1.0 0.00 0.01 0.01 68 1019.8
20260830221628 82 247 2.0 2.0 0.00 0.01 0.01 68 1019.8
20260830221523 82 247 1.0 1.0 0.00 0.01 0.01 68 1019.8
20260830221418 82 247 1.0 1.0 0.00 0.01 0.01 68 1019.8
20260830221330 82 247 0.0 1.0 0.00 0.01 0.01 68 1019.7
20260830221226 82 247 0.0 1.0 0.00 0.01 0.01 67 1019.9
20260830221122 82 247 1.0 2.0 0.00 0.01 0.01 67 1019.8
20260830221017 82 0.0 0.0 0.00 0.01 0.01 67 1019.8
20260830220929 82 247 1.0 1.0 0.00 0.01 0.01 67 1019.9
20260830220845 82 247 0.0 1.0 0.00 0.01 0.01 67 1019.8
20260830220720 82 247 1.0 2.0 0.00 0.01 0.01 67 1019.8
20260830220616 82 247 2.0 2.0 0.00 0.01 0.01 67 1019.8
20260830220527 82 247 1.0 2.0 0.00 0.01 0.01 67 1019.8
20260830220423 82 247 1.0 3.0 0.00 0.01 0.01 67 1019.8
20260830220318 83 0.0 0.0 0.00 0.01 0.01 67 1019.8
20260830220230 83 248 0.0 1.0 0.00 0.01 0.01 67 1019.9
20260830220126 83 248 0.0 1.0 0.00 0.01 0.01 66 1020.0
20260830220021 83 248 1.0 1.0 0.00 0.01 0.01 66 1020.0
20260830215917 83 248 1.0 1.0 0.00 0.01 0.01 66 1020.1
20260830215828 83 248 1.0 2.0 0.00 0.01 0.01 66 1020.1
20260830215724 83 248 1.0 2.0 0.00 0.01 0.01 67 1020.1
20260830215620 83 248 0.0 1.0 0.00 0.01 0.01 66 1020.0
20260830215515 83 248 0.0 1.0 0.00 0.01 0.01 66 1020.2
20260830215426 83 248 1.0 1.0 0.00 0.01 0.01 66 1020.0
20260830215342 83 248 1.0 1.0 0.00 0.01 0.01 66 1020.0
20260830215218 83 0.0 0.0 0.00 0.01 0.01 66 1020.0
20260830215149 83 248 0.0 1.0 0.00 0.01 0.01 66 1019.8
20260830215025 83 248 1.0 2.0 0.00 0.01 0.01 66 1019.7
20260830214920 83 248 0.0 1.0 0.00 0.01 0.01 66 1019.7
20260830214816 83 247 1.0 1.0 0.00 0.01 0.01 66 1019.7
20260830214748 83 247 0.0 1.0 0.00 0.01 0.01 66 1019.6
20260830214623 83 247 0.0 1.0 0.00 0.01 0.01 66 1019.8
20260830214519 84 248 0.0 1.0 0.00 0.01 0.01 66 1019.8
20260830214431 84 0.0 0.0 0.00 0.01 0.01 66 1019.9
20260830214327 84 247 1.0 2.0 0.00 0.01 0.01 66 1019.8
20260830214221 84 247 0.0 2.0 0.00 0.01 0.01 66 1019.8
20260830214117 84 0.0 0.0 0.00 0.01 0.01 66 1019.8
20260830214029 84 0.0 0.0 0.00 0.01 0.01 66 1019.9
20260830213925 84 247 1.0 2.0 0.00 0.01 0.01 65 1019.8
20260830213900 84 0.0 0.0 0.00 0.01 0.01 66 1019.8
20260830213736 84 0.0 0.0 0.00 0.01 0.01 66 1019.8
20260830213627 84 0.0 0.0 0.00 0.01 0.01 66 1019.8
20260830213523 84 247 0.0 1.0 0.00 0.01 0.01 66 1019.8
20260830213418 84 247 0.0 1.0 0.00 0.01 0.01 66 1019.8
20260830213330 84 247 0.0 1.0 0.00 0.01 0.01 66 1019.6
20260830213246 84 248 0.0 1.0 0.00 0.01 0.01 66 1019.7
20260830213121 84 247 1.0 1.0 0.00 0.01 0.01 66 1019.8